KC5DAQ-22 Weather Reports


time (UTC)temp
C
wind
direction
speed
KPH
gust
KPH
rain 1hr
cm
rain 24hr
cm
rain mn
cm
humidity
%
barometer
mb
20260509054705 22 72 3.2 4.8 0.00 0.13 0.00 97 1008.4
20260509054605 22 69 4.8 4.8 0.00 0.13 0.00 97 1008.3
20260509054505 22 103 3.2 6.4 0.00 0.13 0.00 97 1008.4
20260509054405 22 103 3.2 6.4 0.00 0.13 0.00 97 1008.3
20260509054304 22 103 3.2 6.4 0.00 0.13 0.00 97 1008.3
20260509054205 22 103 3.2 6.4 0.00 0.13 0.00 97 1008.3
20260509054106 22 104 3.2 6.4 0.00 0.13 0.00 97 1008.3
20260509054004 22 104 3.2 6.4 0.00 0.13 0.00 97 1008.3
20260509053904 22 104 3.2 6.4 0.00 0.13 0.00 97 1008.4
20260509053805 22 106 3.2 6.4 0.00 0.13 0.00 97 1008.4
20260509053705 22 104 4.8 6.4 0.00 0.13 0.00 97 1008.4
20260509053604 22 103 4.8 8.0 0.00 0.13 0.00 97 1008.5
20260509053505 22 106 3.2 8.0 0.00 0.13 0.00 97 1008.4
20260509053406 22 109 3.2 8.0 0.00 0.13 0.00 97 1008.4
20260509053305 22 109 1.6 8.0 0.00 0.13 0.00 97 1008.4
20260509053205 22 109 1.6 8.0 0.00 0.13 0.00 97 1008.4
20260509053104 22 109 3.2 8.0 0.00 0.13 0.00 97 1008.4
20260509053006 22 109 3.2 8.0 0.00 0.13 0.00 97 1008.4
20260509052905 22 110 4.8 8.0 0.00 0.13 0.00 97 1008.4
20260509052805 22 110 4.8 8.0 0.00 0.13 0.00 97 1008.5
20260509052705 22 109 6.4 8.0 0.00 0.13 0.00 97 1008.5
20260509052604 22 109 3.2 8.0 0.00 0.13 0.00 97 1008.5
20260509052505 22 116 1.6 8.0 0.00 0.13 0.00 97 1008.5
20260509052405 22 145 3.2 9.7 0.00 0.13 0.00 97 1008.5
20260509052307 22 145 4.8 9.7 0.00 0.13 0.00 97 1008.5
20260509052204 22 89 3.2 9.7 0.00 0.13 0.00 97 1008.5
20260509052104 22 111 3.2 9.7 0.00 0.13 0.00 97 1008.5
20260509052004 22 111 3.2 9.7 0.00 0.13 0.00 97 1008.5
20260509051905 22 111 3.2 9.7 0.00 0.13 0.00 97 1008.5
20260509051805 22 113 3.2 9.7 0.00 0.13 0.00 97 1008.5
20260509051705 22 113 4.8 9.7 0.00 0.13 0.00 97 1008.5
20260509051605 22 109 4.8 9.7 0.00 0.13 0.00 97 1008.5
20260509051504 22 113 3.2 9.7 0.00 0.13 0.00 97 1008.5
20260509051405 22 123 3.2 8.0 0.00 0.13 0.00 97 1008.5
20260509051304 22 102 3.2 8.0 0.00 0.13 0.00 97 1008.5
20260509051204 22 102 4.8 8.0 0.00 0.13 0.00 97 1008.4
20260509051106 22 100 3.2 8.0 0.00 0.13 0.00 97 1008.5
20260509051005 22 100 4.8 8.0 0.00 0.13 0.00 97 1008.5
20260509050904 22 107 4.8 8.0 0.00 0.13 0.00 97 1008.5
20260509050804 22 104 4.8 8.0 0.00 0.13 0.00 97 1008.4
20260509050704 22 97 4.8 8.0 0.00 0.13 0.00 97 1008.5
20260509050604 22 97 4.8 8.0 0.00 0.13 0.00 97 1008.5
20260509050504 22 80 4.8 8.0 0.00 0.13 0.00 97 1008.6
20260509050404 22 80 4.8 8.0 0.00 0.13 0.00 97 1008.5
20260509050303 22 89 6.4 8.0 0.00 0.13 0.00 97 1008.5
20260509050204 22 89 6.4 8.0 0.00 0.13 0.00 97 1008.5
20260509050105 22 89 6.4 8.0 0.00 0.13 0.00 97 1008.5
20260509050003 22 87 6.4 8.0 0.00 0.13 0.00 97 1008.5
20260509045903 22 106 4.8 8.0 0.00 0.13 0.13 97 1008.5
20260509045803 22 92 4.8 8.0 0.00 0.13 0.13 97 1008.6
20260509045702 22 92 6.4 8.0 0.00 0.13 0.13 97 1008.5
20260509045602 22 99 6.4 8.0 0.00 0.13 0.13 97 1008.6
20260509045503 22 102 4.8 6.4 0.00 0.13 0.13 97 1008.6
20260509045402 22 96 4.8 6.4 0.00 0.13 0.13 97 1008.5
20260509045301 22 92 3.2 6.4 0.00 0.13 0.13 97 1008.6
20260509045202 22 97 3.2 6.4 0.00 0.13 0.13 97 1008.6
20260509045102 22 97 1.6 6.4 0.00 0.13 0.13 97 1008.7
20260509045003 22 103 1.6 6.4 0.00 0.13 0.13 97 1008.6
20260509044839 22 102 3.2 6.4 0.00 0.13 0.13 97 1008.7
20260509044738 22 103 3.2 6.4 0.00 0.13 0.13 97 1008.7
20260509044635 22 102 3.2 6.4 0.00 0.13 0.13 97 1008.7
20260509044533 22 107 3.2 6.4 0.00 0.13 0.13 97 1008.6
20260509044434 22 144 3.2 6.4 0.00 0.13 0.13 97 1008.7
20260509044332 22 145 3.2 6.4 0.00 0.13 0.13 97 1008.7
20260509044231 22 107 1.6 1.6 0.00 0.13 0.13 97 1008.7
20260509044132 22 107 1.6 3.2 0.00 0.13 0.13 97 1008.7
20260509044032 22 107 1.6 3.2 0.00 0.13 0.13 97 1008.8
20260509043932 22 107 1.6 3.2 0.00 0.13 0.13 97 1008.7
20260509043833 22 107 1.6 3.2 0.00 0.13 0.13 97 1008.6
20260509043732 22 107 1.6 3.2 0.00 0.13 0.13 97 1008.8
20260509043632 22 107 1.6 3.2 0.00 0.13 0.13 97 1008.7
20260509043533 22 107 1.6 6.4 0.00 0.13 0.13 97 1008.8
20260509043432 22 107 1.6 8.0 0.00 0.13 0.13 97 1008.8
20260509043332 22 107 1.6 8.0 0.00 0.13 0.13 97 1008.8
20260509043232 22 107 1.6 8.0 0.00 0.13 0.13 97 1008.9
20260509043132 22 107 1.6 8.0 0.00 0.13 0.13 97 1008.8
20260509043033 22 107 1.6 8.0 0.00 0.13 0.13 97 1008.8
20260509042931 22 107 1.6 8.0 0.00 0.13 0.13 97 1008.8
20260509042832 22 103 4.8 8.0 0.00 0.13 0.13 97 1008.8
20260509042732 22 103 4.8 8.0 0.00 0.13 0.13 97 1008.8
20260509042632 22 103 4.8 8.0 0.00 0.13 0.13 97 1008.8
20260509042532 22 118 4.8 8.0 0.00 0.13 0.13 97 1008.8
20260509042432 22 104 3.2 8.0 0.00 0.13 0.13 97 1008.8
20260509042331 22 92 3.2 8.0 0.00 0.13 0.13 97 1008.7
20260509042233 22 90 3.2 8.0 0.00 0.13 0.13 97 1008.7
20260509042132 22 90 3.2 8.0 0.00 0.13 0.13 97 1008.6
20260509042031 22 90 3.2 8.0 0.00 0.13 0.13 97 1008.6
20260509041930 22 90 3.2 9.7 0.00 0.13 0.13 97 1008.6
20260509041830 22 90 3.2 9.7 0.00 0.13 0.13 97 1008.5
20260509041731 22 92 4.8 9.7 0.00 0.13 0.13 97 1008.5
20260509041632 22 92 4.8 9.7 0.00 0.13 0.13 97 1008.5
20260509041532 22 72 4.8 9.7 0.00 0.13 0.13 97 1008.6
20260509041431 22 72 4.8 9.7 0.00 0.13 0.13 97 1008.6
20260509041332 22 71 4.8 9.7 0.00 0.13 0.13 97 1008.5
20260509041232 22 68 3.2 9.7 0.00 0.13 0.13 97 1008.6
20260509041133 22 85 4.8 9.7 0.00 0.13 0.13 97 1008.5
20260509041030 22 86 6.4 9.7 0.00 0.13 0.13 97 1008.4
20260509040931 22 73 6.4 9.7 0.00 0.13 0.13 97 1008.3
20260509040831 22 71 4.8 9.7 0.00 0.13 0.13 97 1008.4
20260509040731 22 71 4.8 9.7 0.00 0.13 0.13 97 1008.4
20260509040632 22 80 6.4 9.7 0.00 0.13 0.13 97 1008.4
20260509040531 22 78 6.4 9.7 0.00 0.13 0.13 97 1008.3
20260509040432 22 82 6.4 9.7 0.00 0.13 0.13 97 1008.3
20260509040331 22 65 6.4 9.7 0.00 0.13 0.13 97 1008.3
20260509040231 22 83 6.4 9.7 0.00 0.13 0.13 97 1008.3
20260509040130 22 80 6.4 9.7 0.00 0.13 0.13 97 1008.2
20260509040032 22 90 6.4 8.0 0.00 0.13 0.13 97 1008.2
20260509035933 22 73 6.4 8.0 0.00 0.13 0.13 97 1008.1
20260509035832 22 75 6.4 8.0 0.00 0.13 0.13 97 1008.3
20260509035731 22 68 6.4 8.0 0.00 0.13 0.13 97 1008.2
20260509035632 22 78 6.4 8.0 0.00 0.13 0.13 97 1008.3
20260509035531 22 82 6.4 8.0 0.00 0.13 0.13 97 1008.3
20260509035431 22 79 6.4 8.0 0.00 0.13 0.13 97 1008.3
20260509035330 22 97 6.4 8.0 0.00 0.13 0.13 97 1008.2
20260509035233 22 102 6.4 8.0 0.00 0.13 0.13 97 1008.3
20260509035132 22 89 6.4 8.0 0.00 0.13 0.13 97 1008.2
20260509035032 22 89 6.4 8.0 0.00 0.13 0.13 97 1008.2
20260509034932 22 0 6.4 8.0 0.00 0.13 0.13 97 1008.2
20260509034831 22 75 6.4 8.0 0.00 0.13 0.13 97 1008.3
20260509034730 22 82 4.8 9.7 0.00 0.13 0.13 97 1008.3
20260509034620 22 80 4.8 9.7 0.00 0.13 0.13 97 1008.3
20260509034517 22 85 4.8 9.7 0.00 0.13 0.13 97 1008.4
20260509034416 22 103 3.2 9.7 0.00 0.13 0.13 97 1008.4
20260509034315 22 109 6.4 9.7 0.00 0.13 0.13 97 1008.4
20260509034214 22 96 6.4 9.7 0.00 0.13 0.13 97 1008.3
20260509034112 22 102 4.8 9.7 0.00 0.13 0.13 97 1008.4
20260509034012 22 96 3.2 9.7 0.00 0.13 0.13 97 1008.3
20260509033909 22 96 6.4 9.7 0.00 0.13 0.13 97 1008.3
20260509033809 22 83 6.4 9.7 0.00 0.13 0.13 97 1008.2
20260509033707 22 82 6.4 9.7 0.00 0.13 0.13 97 1008.2
20260509033604 22 83 6.4 9.7 0.00 0.13 0.13 97 1008.2
20260509033504 22 83 6.4 9.7 0.00 0.13 0.13 97 1008.1
20260509033403 22 100 6.4 9.7 0.00 0.13 0.13 97 1008.2
20260509033302 22 85 6.4 9.7 0.00 0.13 0.13 97 1008.3
20260509033202 22 114 3.2 9.7 0.00 0.13 0.13 97 1008.3
20260509033102 22 85 3.2 6.4 0.00 0.13 0.13 97 1008.4
20260509033002 22 83 4.8 6.4 0.00 0.13 0.13 97 1008.3
20260509032903 22 83 4.8 11.3 0.00 0.13 0.13 97 1008.4
20260509032803 22 82 4.8 11.3 0.00 0.13 0.13 97 1008.4
20260509032702 22 79 4.8 11.3 0.00 0.13 0.13 97 1008.3
20260509032605 22 79 4.8 11.3 0.00 0.13 0.13 97 1008.3
20260509032501 22 82 4.8 11.3 0.00 0.13 0.13 97 1008.3
20260509032401 22 82 4.8 11.3 0.00 0.13 0.13 97 1008.3
20260509032306 22 65 4.8 11.3 0.00 0.13 0.13 97 1008.3
20260509032203 22 93 6.4 11.3 0.00 0.13 0.13 97 1008.2
20260509032103 22 103 8.0 11.3 0.00 0.13 0.13 97 1008.2
20260509032002 22 99 8.0 11.3 0.00 0.13 0.13 97 1008.2
20260509031903 22 73 8.0 9.7 0.00 0.13 0.13 97 1008.2
20260509031802 22 79 6.4 9.7 0.00 0.13 0.13 97 1008.1
20260509031702 22 111 6.4 9.7 0.00 0.13 0.13 97 1008.2
20260509031600 22 82 8.0 9.7 0.00 0.13 0.13 97 1008.2
20260509031500 22 79 6.4 9.7 0.00 0.13 0.13 97 1008.1
20260509031402 22 90 4.8 8.0 0.00 0.13 0.13 97 1008.2
20260509031300 22 85 4.8 8.0 0.00 0.13 0.13 97 1008.1
20260509031200 22 82 4.8 8.0 0.00 0.13 0.13 97 1008.1
20260509031100 22 82 6.4 8.0 0.00 0.13 0.13 97 1008.1
20260509031000 22 89 6.4 8.0 0.00 0.13 0.13 97 1008.1
20260509030859 22 89 4.8 8.0 0.00 0.13 0.13 97 1008.2
20260509030759 22 83 4.8 8.0 0.00 0.13 0.13 97 1008.2
20260509030700 22 83 4.8 8.0 0.00 0.13 0.13 97 1008.3
20260509030600 22 92 6.4 8.0 0.00 0.13 0.13 97 1008.2
20260509030459 22 78 6.4 8.0 0.00 0.13 0.13 97 1008.2
20260509030400 22 73 6.4 8.0 0.00 0.13 0.13 97 1008.2
20260509030300 22 79 6.4 8.0 0.00 0.13 0.13 97 1008.2
20260509030200 22 90 6.4 8.0 0.00 0.13 0.13 97 1008.1
20260509030100 22 89 6.4 8.0 0.00 0.13 0.13 97 1008.0
20260509030000 22 71 6.4 8.0 0.00 0.13 0.13 97 1008.0
20260509025859 22 71 6.4 8.0 0.00 0.13 0.13 97 1008.0
20260509025801 22 69 6.4 8.0 0.00 0.13 0.13 97 1008.0
20260509025701 22 78 6.4 8.0 0.00 0.13 0.13 97 1008.1
20260509025600 22 68 4.8 8.0 0.00 0.13 0.13 97 1008.1
20260509025459 22 58 4.8 8.0 0.00 0.13 0.13 97 1008.1
20260509025359 22 58 6.4 8.0 0.00 0.13 0.13 97 1008.1
20260509025300 22 65 6.4 9.7 0.00 0.13 0.13 97 1008.1
20260509025159 22 61 4.8 9.7 0.00 0.13 0.13 97 1008.1
20260509025059 22 73 4.8 11.3 0.00 0.13 0.13 97 1008.1
20260509025000 22 78 4.8 11.3 0.00 0.13 0.13 97 1008.1
20260509024859 22 59 6.4 11.3 0.00 0.13 0.13 97 1008.0
20260509024759 22 69 4.8 11.3 0.00 0.13 0.13 97 1007.9
20260509024659 22 71 4.8 11.3 0.00 0.13 0.13 97 1007.8
20260509024601 22 83 4.8 11.3 0.00 0.13 0.13 97 1007.8
20260509024458 22 83 6.4 11.3 0.00 0.13 0.13 97 1007.9
20260509024358 22 86 6.4 11.3 0.00 0.13 0.13 97 1007.9
20260509024259 22 85 8.0 11.3 0.00 0.13 0.13 97 1007.9
20260509024159 22 85 8.0 11.3 0.00 0.13 0.13 97 1008.0
20260509024100 22 69 8.0 9.7 0.00 0.13 0.13 97 1007.9
20260509023959 22 75 6.4 9.7 0.00 0.13 0.13 97 1008.0
20260509023900 22 79 6.4 8.0 0.00 0.13 0.13 97 1007.9
20260509023759 22 79 6.4 8.0 0.00 0.13 0.13 97 1008.0
20260509023658 22 110 4.8 8.0 0.00 0.13 0.13 97 1007.9
20260509023559 22 82 4.8 8.0 0.00 0.13 0.13 97 1007.9
20260509023459 22 82 6.4 8.0 0.00 0.13 0.13 97 1007.9
20260509023359 22 93 6.4 8.0 0.00 0.13 0.13 97 1007.9
20260509023259 22 79 3.2 8.0 0.00 0.13 0.13 97 1007.9
20260509023200 22 87 4.8 9.7 0.00 0.13 0.13 97 1007.8
20260509023059 22 87 6.4 9.7 0.00 0.13 0.13 97 1007.8
20260509022959 22 86 6.4 9.7 0.00 0.13 0.13 97 1007.7
20260509022859 22 83 6.4 9.7 0.00 0.13 0.13 97 1007.6
20260509022758 22 56 6.4 9.7 0.00 0.13 0.13 97 1007.7
20260509022659 22 56 6.4 11.3 0.00 0.13 0.13 97 1007.7
20260509022559 22 48 6.4 11.3 0.00 0.13 0.13 97 1007.6
20260509022500 22 58 6.4 11.3 0.00 0.13 0.13 97 1007.7
20260509022358 22 78 6.4 11.3 0.00 0.13 0.13 97 1007.7
20260509022258 22 68 8.0 11.3 0.00 0.13 0.13 97 1007.7
20260509022200 22 73 8.0 11.3 0.00 0.13 0.13 97 1007.6
20260509022059 22 92 6.4 11.3 0.00 0.13 0.13 97 1007.7
20260509021959 22 66 8.0 11.3 0.00 0.13 0.13 97 1007.6
20260509021858 22 78 8.0 11.3 0.00 0.13 0.13 97 1007.6
20260509021800 22 96 8.0 11.3 0.00 0.13 0.13 97 1007.6
20260509021658 22 85 6.4 11.3 0.00 0.13 0.13 97 1007.6
20260509021559 22 86 6.4 11.3 0.00 0.13 0.13 97 1007.6
20260509021500 22 80 4.8 9.7 0.00 0.13 0.13 97 1007.7
20260509021358 22 65 4.8 9.7 0.00 0.13 0.13 97 1007.7
20260509021259 22 73 4.8 9.7 0.00 0.13 0.13 97 1007.6
20260509021200 22 71 4.8 11.3 0.00 0.13 0.13 97 1007.7
20260509021059 22 90 6.4 11.3 0.00 0.13 0.13 97 1007.6
20260509020958 22 65 6.4 11.3 0.00 0.13 0.13 97 1007.7
20260509020858 22 75 6.4 11.3 0.00 0.13 0.13 97 1007.7
20260509020759 22 80 6.4 11.3 0.00 0.13 0.13 97 1007.6
20260509020658 22 35 6.4 11.3 0.00 0.13 0.13 97 1007.6
20260509020559 22 80 6.4 11.3 0.00 0.13 0.13 97 1007.7
20260509020459 22 54 6.4 11.3 0.00 0.13 0.13 97 1007.7
20260509020357 22 63 8.0 11.3 0.00 0.13 0.13 97 1007.7
20260509020258 22 54 6.4 11.3 0.00 0.13 0.13 97 1007.6
20260509020158 22 65 6.4 9.7 0.00 0.13 0.13 97 1007.7
20260509020059 22 42 6.4 9.7 0.00 0.13 0.13 97 1007.7
20260509015957 22 54 8.0 9.7 0.00 0.13 0.13 97 1007.6
20260509015857 22 69 8.0 9.7 0.00 0.13 0.13 97 1007.6
20260509015759 22 59 6.4 9.7 0.00 0.13 0.13 97 1007.5
20260509015659 22 49 6.4 9.7 0.00 0.13 0.13 97 1007.6
20260509015558 22 75 6.4 9.7 0.00 0.13 0.13 97 1007.6
20260509015457 22 56 6.4 9.7 0.00 0.13 0.13 97 1007.6
20260509015400 22 63 4.8 9.7 0.00 0.13 0.13 96 1007.6
20260509015257 22 51 4.8 8.0 0.00 0.13 0.13 97 1007.6
20260509015158 22 49 4.8 8.0 0.00 0.13 0.13 97 1007.6
20260509015058 22 63 3.2 6.4 0.00 0.13 0.13 97 1007.6
20260509014958 22 63 3.2 6.4 0.00 0.13 0.13 97 1007.6
20260509014857 22 63 3.2 6.4 0.00 0.13 0.13 96 1007.6
20260509014757 22 63 3.2 8.0 0.00 0.13 0.13 97 1007.6
20260509014659 22 63 3.2 8.0 0.00 0.13 0.13 96 1007.6
20260509014558 22 63 4.8 8.0 0.00 0.13 0.13 97 1007.7
20260509014459 22 63 3.2 8.0 0.00 0.13 0.13 96 1007.6
20260509014357 22 68 3.2 8.0 0.00 0.13 0.13 96 1007.7
20260509014257 22 68 3.2 8.0 0.00 0.13 0.13 96 1007.7
20260509014158 22 68 4.8 8.0 0.00 0.13 0.13 96 1007.6
20260509014057 22 68 4.8 8.0 0.00 0.13 0.13 96 1007.6
20260509013958 22 82 6.4 8.0 0.00 0.13 0.13 96 1007.7
20260509013857 22 78 6.4 8.0 0.00 0.13 0.13 96 1007.7
20260509013758 22 68 4.8 8.0 0.00 0.13 0.13 96 1007.7
20260509013658 22 39 4.8 9.7 0.00 0.13 0.13 96 1007.6
20260509013557 22 35 4.8 9.7 0.00 0.13 0.13 96 1007.7
20260509013457 22 79 4.8 9.7 0.00 0.13 0.13 96 1007.7
20260509013357 22 79 6.4 9.7 0.00 0.13 0.13 96 1007.7
20260509013259 22 71 3.2 9.7 0.00 0.13 0.13 96 1007.7
20260509013157 22 66 3.2 14.5 0.00 0.13 0.13 96 1007.7
20260509013057 22 66 4.8 14.5 0.00 0.13 0.13 96 1007.6
20260509012958 22 66 4.8 14.5 0.00 0.13 0.13 96 1007.6
20260509012857 22 51 6.4 14.5 0.00 0.13 0.13 96 1007.6
20260509012758 22 63 6.4 14.5 0.00 0.13 0.13 96 1007.6
20260509012657 22 72 6.4 14.5 0.00 0.13 0.13 96 1007.6
20260509012559 22 102 6.4 14.5 0.00 0.13 0.13 96 1007.5
20260509012456 22 86 8.0 14.5 0.00 0.13 0.13 96 1007.6
20260509012357 22 69 8.0 14.5 0.00 0.13 0.13 96 1007.5
20260509012259 22 75 8.0 14.5 0.00 0.13 0.13 96 1007.5
20260509012157 22 93 6.4 8.0 0.00 0.13 0.13 96 1007.5
20260509012058 22 75 6.4 8.0 0.00 0.13 0.13 96 1007.4
20260509011957 22 75 6.4 8.0 0.00 0.13 0.13 96 1007.5
20260509011858 22 75 6.4 8.0 0.00 0.13 0.13 96 1007.5
20260509011756 22 69 6.4 8.0 0.00 0.13 0.13 96 1007.5
20260509011657 22 102 6.4 8.0 0.00 0.13 0.13 96 1007.5
20260509011559 22 72 6.4 8.0 0.00 0.13 0.13 96 1007.5
20260509011458 22 62 6.4 9.7 0.00 0.13 0.13 96 1007.5
20260509011358 22 78 6.4 14.5 0.00 0.13 0.13 96 1007.4
20260509011258 22 82 4.8 14.5 0.00 0.13 0.13 96 1007.4
20260509011157 22 68 3.2 14.5 0.00 0.13 0.13 96 1007.4
20260509011057 22 68 3.2 14.5 0.00 0.13 0.13 96 1007.4
20260509010957 22 66 4.8 14.5 0.00 0.13 0.13 96 1007.3
20260509010857 22 66 4.8 14.5 0.00 0.13 0.13 96 1007.4
20260509010756 22 66 4.8 14.5 0.00 0.13 0.13 96 1007.4
20260509010657 22 65 6.4 14.5 0.00 0.13 0.13 96 1007.4
20260509010558 22 72 9.7 14.5 0.00 0.13 0.13 96 1007.5
20260509010457 22 85 9.7 14.5 0.00 0.13 0.13 96 1007.4
20260509010358 22 55 8.0 11.3 0.00 0.13 0.13 96 1007.4
20260509010256 22 65 8.0 11.3 0.00 0.13 0.13 96 1007.3
20260509010157 22 24 6.4 11.3 0.00 0.13 0.13 96 1007.3
20260509010056 22 56 4.8 11.3 0.00 0.13 0.13 96 1007.3
20260509005956 22 76 4.8 9.7 0.00 0.13 0.13 96 1007.3
20260509005856 22 54 4.8 9.7 0.00 0.13 0.13 96 1007.3
20260509005756 22 48 4.8 9.7 0.00 0.13 0.13 96 1007.3
20260509005657 22 69 6.4 11.3 0.00 0.13 0.13 96 1007.4
20260509005556 22 66 6.4 11.3 0.00 0.13 0.13 96 1007.3
20260509005457 22 80 6.4 11.3 0.00 0.13 0.13 96 1007.4
20260509005357 22 65 6.4 11.3 0.00 0.13 0.13 96 1007.3
20260509005257 22 69 6.4 11.3 0.00 0.13 0.13 96 1007.4
20260509005158 22 73 4.8 11.3 0.00 0.13 0.13 96 1007.3
20260509005056 22 72 4.8 11.3 0.00 0.13 0.13 96 1007.3
20260509004956 22 63 4.8 11.3 0.00 0.13 0.13 96 1007.3
20260509004856 22 76 6.4 11.3 0.00 0.13 0.13 96 1007.2
20260509004756 22 58 6.4 11.3 0.00 0.13 0.13 96 1007.3
20260509004658 22 54 6.4 9.7 0.00 0.13 0.13 96 1007.2
20260509004556 22 44 6.4 9.7 0.00 0.13 0.13 96 1007.2
20260509004458 22 49 8.0 11.3 0.00 0.13 0.13 96 1007.2
20260509004357 22 55 8.0 11.3 0.00 0.13 0.13 96 1007.2
20260509004257 22 55 8.0 11.3 0.00 0.13 0.13 96 1007.1
20260509004157 22 55 8.0 11.3 0.00 0.13 0.13 96 1007.2
20260509004058 22 83 9.7 11.3 0.00 0.13 0.13 96 1007.2
20260509003957 22 44 8.0 11.3 0.00 0.13 0.13 96 1007.1
20260509003857 22 44 8.0 11.3 0.00 0.13 0.13 96 1007.2
20260509003758 22 44 8.0 11.3 0.00 0.13 0.13 96 1007.2
20260509003656 22 44 8.0 11.3 0.00 0.13 0.13 96 1007.2
20260509003557 22 42 8.0 11.3 0.00 0.13 0.13 96 1007.2
20260509003457 22 79 8.0 11.3 0.00 0.13 0.13 96 1007.2
20260509003356 22 51 8.0 11.3 0.00 0.13 0.13 96 1007.3
20260509003259 22 37 6.4 11.3 0.00 0.13 0.13 96 1007.2
20260509003156 22 78 6.4 11.3 0.00 0.13 0.13 96 1007.2
20260509003056 22 72 8.0 11.3 0.00 0.13 0.13 96 1007.3
20260509002956 22 47 6.4 9.7 0.00 0.13 0.13 96 1007.3
20260509002858 22 45 4.8 9.7 0.00 0.13 0.13 96 1007.3
20260509002758 22 45 3.2 6.4 0.00 0.13 0.13 96 1007.4
20260509002657 22 45 4.8 6.4 0.00 0.13 0.13 96 1007.4
20260509002556 22 45 4.8 9.7 0.00 0.13 0.13 96 1007.3
20260509002455 22 42 3.2 9.7 0.00 0.13 0.13 96 1007.4
20260509002357 22 41 3.2 9.7 0.00 0.13 0.13 96 1007.4
20260509002256 22 41 3.2 9.7 0.00 0.13 0.13 96 1007.3
20260509002157 22 25 4.8 9.7 0.00 0.13 0.13 96 1007.3
20260509002055 22 45 4.8 9.7 0.00 0.13 0.13 96 1007.4
20260509001956 22 47 4.8 9.7 0.00 0.13 0.13 96 1007.4
20260509001856 22 55 4.8 9.7 0.00 0.13 0.13 96 1007.4
20260509001756 22 56 6.4 9.7 0.00 0.13 0.13 96 1007.4
20260509001655 22 61 8.0 9.7 0.00 0.13 0.13 96 1007.3
20260509001557 22 66 6.4 9.7 0.00 0.13 0.13 96 1007.4
20260509001457 22 56 6.4 9.7 0.00 0.13 0.13 96 1007.5
20260509001355 22 92 4.8 9.7 0.00 0.13 0.13 96 1007.5
20260509001255 22 65 4.8 9.7 0.00 0.13 0.13 96 1007.5
20260509001156 22 65 6.4 11.3 0.00 0.13 0.13 96 1007.5
20260509001056 22 54 6.4 11.3 0.00 0.13 0.13 96 1007.4
20260509000956 22 58 8.0 11.3 0.00 0.13 0.13 96 1007.6
20260509000856 22 61 8.0 11.3 0.00 0.13 0.13 96 1007.4
20260509000756 22 63 6.4 11.3 0.00 0.13 0.13 96 1007.4
20260509000657 22 58 6.4 11.3 0.00 0.13 0.13 96 1007.4
20260509000555 22 78 6.4 11.3 0.00 0.13 0.13 96 1007.4
20260509000455 22 59 6.4 11.3 0.00 0.13 0.13 96 1007.4
20260509000355 22 49 6.4 11.3 0.00 0.13 0.13 96 1007.4
20260509000256 22 49 8.0 11.3 0.00 0.13 0.13 96 1007.4
20260509000155 22 52 8.0 11.3 0.00 0.13 0.13 96 1007.3
20260509000057 22 83 8.0 9.7 0.00 0.13 0.13 96 1007.4
20260508235958 22 55 6.4 9.7 0.00 0.13 0.13 96 1007.4
20260508235856 22 51 4.8 9.7 0.00 0.13 0.13 96 1007.4
20260508235755 22 49 4.8 9.7 0.00 0.13 0.13 96 1007.4
20260508235655 22 52 6.4 9.7 0.00 0.13 0.13 96 1007.5
20260508235557 22 52 8.0 9.7 0.00 0.13 0.13 96 1007.4
20260508235454 22 66 8.0 9.7 0.00 0.13 0.13 96 1007.4
20260508235356 22 59 6.4 9.7 0.00 0.13 0.13 96 1007.5
20260508235255 22 68 6.4 9.7 0.00 0.13 0.13 96 1007.5
20260508235156 22 56 6.4 9.7 0.00 0.13 0.13 96 1007.5
20260508235057 22 90 4.8 9.7 0.00 0.13 0.13 96 1007.6
20260508234955 22 72 4.8 8.0 0.00 0.13 0.13 96 1007.6
20260508234857 22 55 6.4 8.0 0.00 0.13 0.13 96 1007.6
20260508234756 22 65 6.4 8.0 0.00 0.13 0.13 96 1007.5
20260508234657 22 65 6.4 8.0 0.00 0.13 0.13 96 1007.5
20260508234555 22 65 6.4 8.0 0.00 0.13 0.13 96 1007.5
20260508234455 22 44 6.4 8.0 0.00 0.13 0.13 96 1007.6
20260508234356 22 45 6.4 8.0 0.00 0.13 0.13 96 1007.5
20260508234254 22 51 6.4 6.4 0.00 0.13 0.13 96 1007.5
20260508234156 22 51 6.4 6.4 0.00 0.13 0.13 96 1007.5
20260508234057 22 49 4.8 6.4 0.00 0.13 0.13 96 1007.6
20260508233955 22 49 4.8 6.4 0.00 0.13 0.13 96 1007.6
20260508233856 22 49 4.8 6.4 0.00 0.13 0.13 96 1007.6
20260508233755 22 49 4.8 9.7 0.00 0.13 0.13 96 1007.7
20260508233654 22 49 4.8 9.7 0.00 0.13 0.13 96 1007.7
20260508233555 22 44 4.8 9.7 0.00 0.13 0.13 96 1007.7
20260508233456 22 35 4.8 9.7 0.00 0.13 0.13 96 1007.7
20260508233355 22 35 3.2 9.7 0.00 0.13 0.13 96 1007.7
20260508233255 22 59 6.4 9.7 0.00 0.13 0.13 96 1007.6
20260508233156 22 59 6.4 9.7 0.00 0.13 0.13 96 1007.5
20260508233055 22 59 6.4 9.7 0.03 0.13 0.13 96 1007.6
20260508232955 22 59 6.4 9.7 0.03 0.13 0.13 96 1007.5
20260508232855 22 58 6.4 9.7 0.03 0.13 0.13 96 1007.6
20260508232755 22 48 6.4 9.7 0.03 0.13 0.13 96 1007.6
20260508232654 22 69 6.4 9.7 0.03 0.13 0.13 95 1007.6
20260508232554 22 62 6.4 9.7 0.03 0.13 0.13 95 1007.6
20260508232456 22 58 6.4 9.7 0.03 0.13 0.13 96 1007.6
20260508232355 22 62 4.8 9.7 0.03 0.13 0.13 96 1007.6
20260508232254 22 62 4.8 9.7 0.03 0.13 0.13 96 1007.6
20260508232154 22 62 4.8 9.7 0.03 0.13 0.13 96 1007.7
20260508232056 22 62 4.8 9.7 0.03 0.13 0.13 95 1007.7
20260508231957 22 62 6.4 9.7 0.03 0.13 0.13 95 1007.7
20260508231855 22 49 6.4 9.7 0.03 0.13 0.13 95 1007.7
20260508231755 22 65 6.4 9.7 0.03 0.13 0.13 95 1007.7
20260508231655 22 59 6.4 9.7 0.03 0.13 0.13 95 1007.7
20260508231556 22 68 6.4 9.7 0.03 0.13 0.13 95 1007.7
20260508231454 22 47 6.4 9.7 0.03 0.13 0.13 95 1007.7
20260508231355 22 59 6.4 9.7 0.03 0.13 0.13 96 1007.6
20260508231254 22 65 4.8 6.4 0.03 0.13 0.13 95 1007.7
20260508231154 22 51 4.8 6.4 0.03 0.13 0.13 96 1007.7
20260508231054 22 51 4.8 6.4 0.03 0.13 0.13 96 1007.6
20260508230954 22 51 4.8 6.4 0.03 0.13 0.13 96 1007.5
20260508230855 22 44 4.8 6.4 0.03 0.13 0.13 96 1007.5
20260508230755 22 44 4.8 8.0 0.03 0.13 0.13 96 1007.6
20260508230654 22 42 3.2 8.0 0.03 0.13 0.13 96 1007.6
20260508230555 22 42 3.2 9.7 0.03 0.13 0.13 96 1007.6
20260508230455 22 42 3.2 9.7 0.03 0.13 0.13 96 1007.5
20260508230355 22 42 3.2 9.7 0.03 0.13 0.13 96 1007.5
20260508230255 22 42 3.2 9.7 0.03 0.13 0.13 96 1007.6
20260508230154 22 41 3.2 9.7 0.03 0.13 0.13 96 1007.5
20260508230056 22 58 3.2 9.7 0.03 0.13 0.13 96 1007.5
20260508225955 22 63 4.8 9.7 0.03 0.10 0.13 96 1007.5
20260508225855 22 63 6.4 9.7 0.03 0.10 0.13 96 1007.4
20260508225755 22 65 6.4 11.3 0.03 0.10 0.13 96 1007.4
20260508225655 22 73 6.4 11.3 0.03 0.10 0.13 96 1007.4
20260508225554 22 68 8.0 11.3 0.03 0.10 0.13 96 1007.4
20260508225454 22 68 8.0 11.3 0.03 0.10 0.13 96 1007.4
20260508225355 22 68 8.0 11.3 0.03 0.10 0.13 96 1007.3
20260508225254 22 68 8.0 11.3 0.03 0.10 0.13 96 1007.3
20260508225153 22 97 9.7 11.3 0.03 0.10 0.13 96 1007.3
20260508225053 22 82 9.7 11.3 0.03 0.10 0.13 96 1007.3
20260508224954 22 85 8.0 11.3 0.03 0.10 0.13 96 1007.4
20260508224853 22 99 6.4 11.3 0.03 0.10 0.13 96 1007.3
20260508224753 22 71 4.8 8.0 0.03 0.10 0.13 96 1007.3
20260508224654 22 54 4.8 9.7 0.03 0.10 0.13 96 1007.4
20260508224553 22 59 6.4 9.7 0.03 0.10 0.13 96 1007.4
20260508224454 22 41 6.4 9.7 0.03 0.10 0.13 96 1007.4
20260508224353 22 35 4.8 9.7 0.03 0.10 0.13 96 1007.4
20260508224255 22 35 4.8 9.7 0.03 0.10 0.13 96 1007.5
20260508224154 22 62 4.8 9.7 0.03 0.10 0.13 96 1007.6
20260508224054 22 62 4.8 9.7 0.03 0.10 0.13 96 1007.5
20260508223953 22 56 3.2 9.7 0.03 0.10 0.13 96 1007.5
20260508223853 22 58 6.4 9.7 0.03 0.10 0.13 95 1007.5
20260508223753 22 58 6.4 9.7 0.03 0.10 0.13 96 1007.5
20260508223654 22 49 6.4 9.7 0.03 0.10 0.13 96 1007.4
20260508223554 22 42 6.4 9.7 0.03 0.10 0.13 95 1007.4
20260508223453 22 47 6.4 9.7 0.03 0.10 0.13 95 1007.5
20260508223353 22 51 6.4 9.7 0.03 0.10 0.13 95 1007.5
20260508223255 22 58 3.2 8.0 0.03 0.10 0.13 96 1007.5
20260508223153 22 55 3.2 6.4 0.03 0.10 0.10 96 1007.5
20260508223053 22 55 4.8 6.4 0.00 0.10 0.10 96 1007.5
20260508222954 22 55 4.8 6.4 0.00 0.10 0.10 96 1007.5
20260508222854 22 58 6.4 8.0 0.00 0.10 0.10 96 1007.5
20260508222753 22 63 6.4 8.0 0.00 0.10 0.10 95 1007.5
20260508222653 22 56 6.4 8.0 0.00 0.10 0.10 95 1007.5
20260508222555 22 56 6.4 8.0 0.00 0.10 0.10 95 1007.6
20260508222453 22 61 6.4 8.0 0.00 0.10 0.10 95 1007.5
20260508222353 22 59 4.8 8.0 0.00 0.10 0.10 95 1007.6
20260508222254 22 47 4.8 8.0 0.00 0.10 0.10 95 1007.6
20260508222154 22 47 4.8 8.0 0.00 0.10 0.10 95 1007.6
20260508222054 22 47 4.8 8.0 0.00 0.10 0.10 95 1007.6
20260508221954 22 47 4.8 8.0 0.00 0.10 0.10 95 1007.6
20260508221853 22 34 3.2 6.4 0.00 0.10 0.10 96 1007.7
20260508221755 22 34 3.2 6.4 0.00 0.10 0.10 96 1007.6
20260508221653 22 34 3.2 8.0 0.00 0.10 0.10 96 1007.6
20260508221555 22 34 3.2 8.0 0.00 0.10 0.10 95 1007.7
20260508221454 22 34 3.2 8.0 0.00 0.10 0.10 95 1007.7
20260508221354 22 34 4.8 8.0 0.00 0.10 0.10 95 1007.7
20260508221252 22 34 4.8 8.0 0.00 0.10 0.10 95 1007.6
20260508221154 22 32 4.8 8.0 0.00 0.10 0.10 95 1007.6
20260508221052 22 32 4.8 8.0 0.00 0.10 0.10 95 1007.6
20260508220952 22 42 4.8 8.0 0.00 0.10 0.10 95 1007.6
20260508220853 22 41 4.8 8.0 0.00 0.10 0.10 95 1007.7
20260508220754 22 42 4.8 8.0 0.00 0.10 0.10 95 1007.7
20260508220653 22 42 3.2 9.7 0.00 0.10 0.10 95 1007.7
20260508220552 22 42 3.2 9.7 0.00 0.10 0.10 96 1007.7
20260508220454 22 41 3.2 9.7 0.00 0.10 0.10 96 1007.7
20260508220353 22 41 3.2 9.7 0.00 0.10 0.10 95 1007.7
20260508220252 22 41 4.8 9.7 0.00 0.10 0.10 95 1007.7
20260508220153 22 41 4.8 9.7 0.00 0.10 0.10 95 1007.7
20260508220053 22 42 6.4 9.7 0.00 0.10 0.10 95 1007.7
20260508215952 22 34 6.4 9.7 0.00 0.10 0.10 95 1007.7
20260508215852 22 31 6.4 9.7 0.00 0.10 0.10 95 1007.6
20260508215754 22 49 6.4 9.7 0.00 0.10 0.10 95 1007.6
20260508215652 22 38 4.8 9.7 0.00 0.10 0.10 95 1007.6
20260508215553 22 52 4.8 9.7 0.00 0.10 0.10 95 1007.6
20260508215455 22 55 6.4 9.7 0.00 0.10 0.10 95 1007.6
20260508215353 22 54 4.8 9.7 0.00 0.10 0.10 95 1007.7
20260508215253 22 47 4.8 9.7 0.00 0.10 0.10 95 1007.7
20260508215152 22 47 4.8 9.7 0.00 0.10 0.10 95 1007.6
20260508215053 22 59 6.4 9.7 0.00 0.10 0.10 95 1007.7
20260508214953 22 52 4.8 9.7 0.00 0.10 0.10 95 1007.7
20260508214852 22 51 3.2 8.0 0.00 0.10 0.10 95 1007.7
20260508214754 22 51 3.2 8.0 0.00 0.10 0.10 95 1007.7
20260508214653 22 45 3.2 8.0 0.00 0.10 0.10 95 1007.7
20260508214552 22 45 4.8 8.0 0.00 0.10 0.10 95 1007.8
20260508214453 22 42 4.8 8.0 0.00 0.10 0.10 95 1007.9
20260508214354 22 59 6.4 8.0 0.00 0.10 0.10 95 1007.9
20260508214253 22 56 6.4 8.0 0.00 0.10 0.10 95 1007.9
20260508214152 22 62 4.8 8.0 0.00 0.10 0.10 95 1007.9
20260508214053 22 49 4.8 8.0 0.00 0.10 0.10 95 1007.9
20260508213952 22 48 6.4 8.0 0.00 0.10 0.10 95 1007.9
20260508213853 22 48 6.4 8.0 0.00 0.10 0.10 95 1008.0
20260508213753 22 47 4.8 8.0 0.00 0.10 0.10 95 1008.0
20260508213653 22 47 3.2 8.0 0.00 0.10 0.10 95 1007.9
20260508213552 22 47 4.8 8.0 0.00 0.10 0.10 95 1007.9
20260508213451 22 48 4.8 8.0 0.00 0.10 0.10 94 1008.0
20260508213353 22 48 6.4 8.0 0.00 0.10 0.10 94 1008.0
20260508213253 22 42 6.4 8.0 0.00 0.10 0.10 94 1008.0
20260508213151 22 39 6.4 8.0 0.00 0.10 0.10 94 1007.9
20260508213052 22 38 4.8 8.0 0.00 0.10 0.10 94 1008.0
20260508212952 22 47 4.8 8.0 0.00 0.10 0.10 94 1008.0
20260508212852 22 45 3.2 8.0 0.00 0.10 0.10 94 1008.0
20260508212752 22 44 4.8 8.0 0.00 0.10 0.10 94 1008.0
20260508212652 22 44 4.8 8.0 0.00 0.10 0.10 94 1008.0
20260508212554 22 42 4.8 8.0 0.00 0.10 0.10 94 1008.0
20260508212453 22 32 3.2 9.7 0.00 0.10 0.10 94 1007.9
20260508212352 22 63 3.2 9.7 0.00 0.10 0.10 94 1008.0
20260508212253 22 63 6.4 9.7 0.00 0.10 0.10 94 1008.0
20260508212152 22 62 4.8 9.7 0.00 0.10 0.10 94 1007.9
20260508212052 22 69 4.8 9.7 0.00 0.10 0.10 94 1008.0
20260508211953 22 73 4.8 9.7 0.00 0.10 0.10 94 1007.9
20260508211852 22 59 4.8 9.7 0.00 0.10 0.10 94 1007.9
20260508211753 22 56 6.4 9.7 0.00 0.10 0.10 94 1007.9
20260508211651 22 65 6.4 9.7 0.00 0.10 0.10 94 1007.9
20260508211551 22 73 6.4 9.7 0.00 0.10 0.10 94 1007.8
20260508211452 22 85 6.4 9.7 0.00 0.10 0.10 94 1007.8
20260508211353 22 79 6.4 9.7 0.00 0.10 0.10 94 1007.8
20260508211252 22 93 4.8 8.0 0.00 0.10 0.10 93 1007.8
20260508211152 22 52 4.8 8.0 0.00 0.10 0.10 93 1007.8
20260508211051 22 51 4.8 8.0 0.00 0.10 0.10 93 1007.9
20260508210952 22 54 4.8 8.0 0.00 0.10 0.10 93 1007.9
20260508210851 22 59 3.2 8.0 0.00 0.10 0.10 93 1008.0
20260508210752 22 59 3.2 8.0 0.00 0.10 0.10 93 1008.0
20260508210651 22 59 3.2 8.0 0.03 0.10 0.10 93 1008.0
20260508210553 22 61 4.8 8.0 0.03 0.10 0.10 93 1008.0
20260508210451 22 61 6.4 8.0 0.03 0.10 0.10 93 1008.0
20260508210352 22 54 4.8 6.4 0.03 0.10 0.10 93 1007.9
20260508210252 22 54 4.8 6.4 0.03 0.10 0.10 93 1007.9
20260508210152 22 63 3.2 6.4 0.03 0.10 0.10 93 1007.9
20260508210051 22 56 3.2 6.4 0.05 0.10 0.10 93 1007.9
20260508205951 22 87 3.2 6.4 0.05 0.05 0.10 93 1007.9
20260508205854 22 87 4.8 6.4 0.05 0.05 0.10 93 1007.9
20260508205752 22 87 3.2 6.4 0.05 0.05 0.10 93 1008.0
20260508205651 22 86 0.0 4.8 0.05 0.05 0.10 93 1008.2
20260508205553 22 86 1.6 4.8 0.05 0.05 0.10 93 1008.2
20260508205451 22 86 3.2 4.8 0.05 0.05 0.10 93 1008.2
20260508205351 22 86 1.6 3.2 0.05 0.05 0.10 93 1008.2
20260508205252 22 87 1.6 4.8 0.08 0.05 0.10 93 1008.1
20260508205153 22 87 1.6 4.8 0.08 0.05 0.10 93 1008.0
20260508205050 22 87 0.0 6.4 0.08 0.05 0.10 93 1008.1
20260508204950 22 87 0.0 6.4 0.08 0.05 0.10 93 1008.1
20260508204851 22 87 0.0 6.4 0.08 0.05 0.10 93 1008.2
20260508204752 22 87 0.0 6.4 0.08 0.05 0.10 93 1008.2
20260508204652 22 87 0.0 6.4 0.08 0.05 0.10 93 1008.2
20260508204551 22 87 1.6 6.4 0.08 0.05 0.10 94 1008.2
20260508204452 22 87 1.6 6.4 0.08 0.05 0.10 94 1008.2
20260508204352 22 87 1.6 6.4 0.08 0.05 0.10 94 1008.2
20260508204251 22 87 3.2 6.4 0.10 0.05 0.10 93 1008.0
20260508204152 22 87 4.8 9.7 0.10 0.05 0.10 94 1008.0
20260508204051 22 89 3.2 11.3 0.10 0.05 0.10 94 1008.0
20260508203951 22 102 3.2 11.3 0.10 0.05 0.10 94 1007.9
20260508203851 22 103 3.2 11.3 0.10 0.05 0.10 94 1008.0
20260508203752 22 117 3.2 11.3 0.10 0.05 0.10 94 1008.1
20260508203651 22 73 3.2 11.3 0.10 0.05 0.10 94 1008.1
20260508203551 22 73 3.2 11.3 0.10 0.05 0.10 94 1008.0
20260508203451 22 48 3.2 11.3 0.10 0.05 0.10 94 1007.9
20260508203351 22 44 4.8 11.3 0.10 0.05 0.10 94 1007.8
20260508203250 22 76 6.4 11.3 0.10 0.05 0.10 94 1007.8
20260508203150 22 93 6.4 11.3 0.10 0.05 0.10 94 1007.8
20260508203051 22 94 6.4 11.3 0.10 0.05 0.10 94 1007.7
20260508202950 22 92 6.4 11.3 0.10 0.05 0.10 94 1007.9
20260508202850 22 63 4.8 11.3 0.10 0.05 0.10 95 1007.9
20260508202751 22 55 8.0 11.3 0.10 0.05 0.10 95 1007.9
20260508202651 22 42 8.0 11.3 0.10 0.05 0.10 95 1007.9
20260508202551 22 71 8.0 11.3 0.10 0.05 0.10 95 1007.9
20260508202451 22 71 8.0 11.3 0.10 0.05 0.10 94 1007.9
20260508202350 22 52 6.4 11.3 0.10 0.05 0.10 94 1007.9
20260508202252 22 62 6.4 11.3 0.10 0.05 0.10 94 1007.9
20260508202150 22 72 8.0 8.0 0.10 0.05 0.10 94 1008.0
20260508202052 22 62 6.4 8.0 0.10 0.05 0.10 94 1008.1
20260508201950 22 61 6.4 8.0 0.10 0.05 0.10 94 1008.2
20260508201851 22 55 4.8 8.0 0.10 0.05 0.10 94 1008.3
20260508201752 22 54 4.8 8.0 0.10 0.05 0.10 94 1008.3
20260508201652 22 69 3.2 9.7 0.10 0.05 0.10 95 1008.4
20260508201551 22 80 3.2 9.7 0.10 0.05 0.10 94 1008.5
20260508201451 22 83 3.2 9.7 0.10 0.05 0.10 94 1008.5
20260508201351 22 118 3.2 9.7 0.10 0.05 0.10 94 1008.5
20260508201250 22 120 4.8 11.3 0.10 0.05 0.10 94 1008.5
20260508201151 22 85 3.2 11.3 0.10 0.05 0.10 95 1008.5
20260508201051 22 68 3.2 11.3 0.10 0.05 0.10 95 1008.5
20260508200950 22 87 3.2 11.3 0.10 0.05 0.10 95 1008.4
20260508200849 22 134 6.4 11.3 0.10 0.05 0.10 94 1008.4
20260508200751 22 102 6.4 11.3 0.10 0.05 0.10 94 1008.4
20260508200651 22 97 6.4 11.3 0.08 0.05 0.08 94 1008.4
20260508200550 22 113 8.0 11.3 0.08 0.05 0.08 94 1008.3
20260508200450 22 102 9.7 11.3 0.08 0.05 0.08 94 1008.3
20260508200351 22 111 9.7 11.3 0.08 0.05 0.08 94 1008.3
20260508200251 22 123 8.0 11.3 0.08 0.05 0.08 94 1008.3
20260508200152 22 124 6.4 9.7 0.08 0.05 0.05 94 1008.4
20260508200051 22 90 4.8 6.4 0.05 0.05 0.05 94 1008.4
20260508195950 22 90 3.2 6.4 0.05 0.00 0.05 94 1008.5
20260508195850 22 111 3.2 6.4 0.05 0.00 0.05 93 1008.6
20260508195749 22 152 3.2 6.4 0.05 0.00 0.05 93 1008.6
20260508195651 22 102 3.2 6.4 0.05 0.00 0.05 93 1008.6
20260508195549 22 111 3.2 6.4 0.05 0.00 0.05 93 1008.5
20260508195450 22 120 3.2 6.4 0.05 0.00 0.05 93 1008.6
20260508195350 22 99 3.2 6.4 0.05 0.00 0.03 93 1008.6
20260508195250 22 103 4.8 6.4 0.03 0.00 0.03 92 1008.7
20260508195149 22 164 4.8 6.4 0.03 0.00 0.03 92 1008.8
20260508195049 22 116 3.2 6.4 0.03 0.00 0.03 92 1008.7
20260508194950 22 127 1.6 8.0 0.03 0.00 0.03 92 1008.7
20260508194850 22 89 0.0 8.0 0.03 0.00 0.03 92 1008.9
20260508194750 22 89 0.0 8.0 0.03 0.00 0.03 92 1008.9
20260508194649 22 89 0.0 8.0 0.03 0.00 0.03 92 1008.9
20260508194549 22 89 1.6 8.0 0.03 0.00 0.03 92 1009.0
20260508194450 22 89 3.2 8.0 0.03 0.00 0.03 91 1009.0
20260508194349 22 89 3.2 8.0 0.03 0.00 0.00 91 1009.0
20260508194250 22 87 4.8 8.0 0.00 0.00 0.00 91 1008.9
20260508194149 22 85 6.4 8.0 0.00 0.00 0.00 91 1008.9
20260508194050 22 114 6.4 8.0 0.00 0.00 0.00 91 1008.9
20260508193950 22 94 6.4 8.0 0.00 0.00 0.00 91 1009.0
20260508193849 22 87 6.4 8.0 0.00 0.00 0.00 90 1009.0
20260508193749 22 86 6.4 8.0 0.00 0.00 0.00 90 1009.0
20260508193649 22 104 6.4 8.0 0.00 0.00 0.00 89 1009.0
20260508193551 22 85 6.4 8.0 0.00 0.00 0.00 90 1009.0
20260508193449 22 83 4.8 8.0 0.00 0.00 0.00 90 1009.1
20260508193351 22 90 4.8 8.0 0.00 0.00 0.00 90 1009.0
20260508193250 22 83 4.8 8.0 0.00 0.00 0.00 89 1009.0
20260508193150 22 83 4.8 8.0 0.00 0.00 0.00 89 1009.1
20260508193049 22 63 4.8 8.0 0.00 0.00 0.00 89 1009.1
20260508192949 22 63 6.4 8.0 0.00 0.00 0.00 89 1009.0
20260508192850 22 62 4.8 14.5 0.00 0.00 0.00 89 1009.1
20260508192748 22 79 3.2 14.5 0.00 0.00 0.00 90 1009.1
20260508192649 22 89 3.2 14.5 0.00 0.00 0.00 89 1009.1
20260508192551 22 89 4.8 14.5 0.00 0.00 0.00 89 1009.1
20260508192449 22 89 3.2 14.5 0.00 0.00 0.00 89 1009.1
20260508192350 22 89 3.2 14.5 0.00 0.00 0.00 89 1009.0
20260508192249 22 111 4.8 14.5 0.00 0.00 0.00 89 1009.0
20260508192151 22 111 4.8 14.5 0.00 0.00 0.00 89 1009.0
20260508192050 22 118 8.0 14.5 0.00 0.00 0.00 89 1009.1
20260508191949 22 102 9.7 14.5 0.00 0.00 0.00 88 1009.1
20260508191849 22 99 8.0 14.5 0.00 0.00 0.00 89 1009.0
20260508191748 22 76 8.0 14.5 0.00 0.00 0.00 88 1009.1
20260508191649 22 82 8.0 14.5 0.00 0.00 0.00 88 1008.9
20260508191549 22 85 8.0 14.5 0.00 0.00 0.00 88 1009.0
20260508191450 22 79 8.0 16.1 0.00 0.00 0.00 88 1008.9
20260508191348 22 80 8.0 16.1 0.00 0.00 0.00 88 1008.9
20260508191249 22 83 8.0 19.3 0.00 0.00 0.00 88 1009.0
20260508191148 22 82 8.0 19.3 0.00 0.00 0.00 88 1009.0
20260508191048 22 86 8.0 19.3 0.00 0.00 0.00 88 1008.9
20260508190948 22 96 6.4 19.3 0.00 0.00 0.00 88 1009.0
20260508190848 22 106 6.4 19.3 0.00 0.00 0.00 88 1008.9
20260508190750 22 85 6.4 19.3 0.00 0.00 0.00 88 1009.0
20260508190646 22 86 9.7 19.3 0.00 0.00 0.00 88 1009.0
20260508190547 22 103 11.3 19.3 0.00 0.00 0.00 88 1009.0
20260508190443 22 86 12.9 20.9 0.00 0.00 0.00 88 1009.0
20260508190343 22 109 9.7 20.9 0.00 0.00 0.00 88 1008.9
20260508190241 22 118 6.4 20.9 0.00 0.00 0.00 88 1009.0
20260508190140 22 87 6.4 20.9 0.00 0.00 0.00 89 1009.0
20260508190039 22 104 9.7 20.9 0.00 0.00 0.00 88 1009.1
20260508185938 22 109 11.3 20.9 0.00 0.00 0.00 88 1009.0
20260508185838 22 111 12.9 20.9 0.00 0.00 0.00 88 1009.0
20260508185735 22 82 12.9 20.9 0.00 0.00 0.00 88 1009.0
20260508185634 22 127 12.9 20.9 0.00 0.00 0.00 88 1008.9
20260508185533 22 123 12.9 20.9 0.00 0.00 0.00 88 1008.9
20260508185430 22 125 12.9 19.3 0.00 0.00 0.00 88 1008.8
20260508185330 22 107 11.3 19.3 0.00 0.00 0.00 88 1008.9
20260508185227 22 103 9.7 19.3 0.00 0.00 0.00 89 1008.8
20260508185127 22 111 11.3 19.3 0.00 0.00 0.00 89 1008.9
20260508185026 22 114 14.5 19.3 0.00 0.00 0.00 88 1008.9
20260508184922 22 104 12.9 19.3 0.00 0.00 0.00 89 1008.9
20260508184820 22 111 11.3 19.3 0.00 0.00 0.00 89 1009.0
20260508184719 22 111 11.3 19.3 0.00 0.00 0.00 89 1008.9
20260508184618 22 125 12.9 19.3 0.00 0.00 0.00 89 1008.9
20260508184516 22 124 14.5 19.3 0.00 0.00 0.00 89 1008.9
20260508184415 22 113 12.9 17.7 0.00 0.00 0.00 89 1008.9
20260508184313 22 109 9.7 17.7 0.00 0.00 0.00 89 1008.9
20260508184212 22 94 9.7 17.7 0.00 0.00 0.00 89 1009.0
20260508184111 22 111 11.3 17.7 0.00 0.00 0.00 89 1008.9
20260508184010 22 102 11.3 17.7 0.00 0.00 0.00 89 1009.0
20260508183908 22 111 9.7 16.1 0.00 0.00 0.00 89 1009.0
20260508183805 22 124 11.3 16.1 0.00 0.00 0.00 89 1008.9
20260508183703 22 97 11.3 16.1 0.00 0.00 0.00 89 1008.9
20260508183603 22 128 9.7 16.1 0.00 0.00 0.00 89 1009.0
20260508183503 22 79 11.3 14.5 0.00 0.00 0.00 89 1009.0
20260508183402 22 82 11.3 14.5 0.00 0.00 0.00 89 1009.0
20260508183303 22 89 9.7 14.5 0.00 0.00 0.00 89 1009.0
20260508183203 22 87 8.0 11.3 0.00 0.00 0.00 89 1009.1
20260508183103 22 100 8.0 11.3 0.00 0.00 0.00 89 1009.2
20260508183003 22 96 8.0 9.7 0.00 0.00 0.00 89 1009.2
20260508182904 22 86 8.0 9.7 0.00 0.00 0.00 89 1009.3
20260508182803 22 93 8.0 9.7 0.00 0.00 0.00 89 1009.4
20260508182703 22 78 8.0 9.7 0.00 0.00 0.00 89 1009.3
20260508182602 22 94 6.4 9.7 0.00 0.00 0.00 89 1009.3
20260508182502 22 96 6.4 9.7 0.00 0.00 0.00 89 1009.3
20260508182402 22 104 6.4 9.7 0.00 0.00 0.00 89 1009.3
20260508182306 22 90 6.4 9.7 0.00 0.00 0.00 89 1009.4
20260508182203 22 92 8.0 9.7 0.00 0.00 0.00 89 1009.4
20260508182102 22 86 6.4 9.7 0.00 0.00 0.00 89 1009.5
20260508182003 22 80 6.4 9.7 0.00 0.00 0.00 89 1009.4
20260508181903 22 96 4.8 9.7 0.00 0.00 0.00 89 1009.5
20260508181803 22 71 4.8 9.7 0.00 0.00 0.00 89 1009.5
20260508181702 22 30 4.8 9.7 0.00 0.00 0.00 89 1009.6
20260508181603 22 72 8.0 11.3 0.00 0.00 0.00 89 1009.6
20260508181504 21 96 6.4 11.3 0.00 0.00 0.00 89 1009.6
20260508181402 22 82 6.4 11.3 0.00 0.00 0.00 89 1009.7
20260508181301 22 90 6.4 11.3 0.00 0.00 0.00 89 1009.7
20260508181203 22 72 6.4 11.3 0.00 0.00 0.00 89 1009.7
20260508181103 22 66 6.4 11.3 0.00 0.00 0.00 89 1009.8
20260508181002 22 75 6.4 11.3 0.00 0.00 0.00 89 1009.7
20260508180903 22 51 4.8 11.3 0.00 0.00 0.00 89 1009.7
20260508180802 22 55 8.0 11.3 0.00 0.00 0.00 89 1009.7
20260508180702 22 55 8.0 14.5 0.00 0.00 0.00 89 1009.7
20260508180603 22 32 6.4 14.5 0.00 0.00 0.00 90 1009.7
20260508180502 22 52 4.8 14.5 0.00 0.00 0.00 90 1009.8
20260508180402 22 69 4.8 14.5 0.00 0.00 0.00 90 1009.7
20260508180302 22 73 6.4 14.5 0.00 0.00 0.00 90 1009.7
20260508180204 22 65 6.4 14.5 0.00 0.00 0.00 90 1009.7
20260508180003 21 90 8.0 14.5 0.00 0.00 0.00 90 1009.7
20260508175904 21 92 9.7 14.5 0.00 0.00 0.00 90 1009.7
20260508175802 21 90 9.7 14.5 0.00 0.00 0.00 90 1009.7
20260508175702 21 82 9.7 14.5 0.00 0.00 0.00 90 1009.7
20260508175603 21 109 9.7 14.5 0.00 0.00 0.00 90 1009.7
20260508175504 21 94 8.0 9.7 0.00 0.00 0.00 90 1009.8
20260508175402 21 78 6.4 11.3 0.00 0.00 0.00 90 1009.8
20260508175305 21 44 6.4 11.3 0.00 0.00 0.00 90 1009.8
20260508175203 21 49 8.0 11.3 0.00 0.00 0.00 90 1009.9
20260508175102 21 69 6.4 11.3 0.00 0.00 0.00 89 1009.9
20260508175004 21 62 6.4 11.3 0.00 0.00 0.00 89 1010.0
20260508174903 21 87 4.8 11.3 0.00 0.00 0.00 89 1010.1
20260508174803 21 83 4.8 11.3 0.00 0.00 0.00 89 1010.2
20260508174703 21 66 6.4 11.3 0.00 0.00 0.00 89 1010.1
20260508174602 21 114 9.7 11.3 0.00 0.00 0.00 89 1010.2
20260508174504 21 118 8.0 11.3 0.00 0.00 0.00 89 1010.1
20260508174402 21 120 8.0 11.3 0.00 0.00 0.00 89 1010.1
20260508174303 21 116 8.0 9.7 0.00 0.00 0.00 89 1010.1
20260508174203 21 83 8.0 9.7 0.00 0.00 0.00 89 1010.1
20260508174103 21 99 6.4 9.7 0.00 0.00 0.00 89 1010.0
20260508174001 21 83 4.8 14.5 0.00 0.00 0.00 89 1010.1
20260508173902 22 48 3.2 14.5 0.00 0.00 0.00 88 1010.0
20260508173802 22 41 3.2 14.5 0.00 0.00 0.00 89 1010.1
20260508173701 22 41 3.2 14.5 0.00 0.00 0.00 89 1010.1
20260508173602 22 39 1.6 14.5 0.00 0.00 0.00 89 1010.1
20260508173504 22 39 3.2 14.5 0.00 0.00 0.00 89 1010.1
20260508173402 22 42 3.2 14.5 0.00 0.00 0.00 89 1010.0
20260508173302 22 42 6.4 14.5 0.00 0.00 0.00 88 1010.0
20260508173204 22 42 8.0 14.5 0.00 0.00 0.00 88 1010.0
20260508173103 22 58 8.0 14.5 0.00 0.00 0.00 88 1010.0
20260508173003 22 72 8.0 11.3 0.00 0.00 0.00 87 1010.0
20260508172903 22 79 4.8 9.7 0.00 0.00 0.00 88 1010.0
20260508172804 22 79 4.8 11.3 0.00 0.00 0.00 88 1010.1
20260508172703 22 79 4.8 11.3 0.00 0.00 0.00 88 1010.1
20260508172603 22 79 4.8 16.1 0.00 0.00 0.00 88 1010.1
20260508172503 22 79 3.2 16.1 0.00 0.00 0.00 88 1010.1
20260508172402 22 76 4.8 16.1 0.00 0.00 0.00 88 1010.1
20260508172306 21 93 6.4 16.1 0.00 0.00 0.00 88 1010.1
20260508172202 21 128 6.4 16.1 0.00 0.00 0.00 87 1010.1
20260508172103 21 83 6.4 16.1 0.00 0.00 0.00 87 1010.2
20260508172002 21 80 8.0 16.1 0.00 0.00 0.00 87 1010.1
20260508171902 21 104 9.7 16.1 0.00 0.00 0.00 87 1010.1
20260508171803 21 109 11.3 16.1 0.00 0.00 0.00 87 1010.1
20260508171702 22 93 11.3 16.1 0.00 0.00 0.00 87 1010.2
20260508171603 22 104 11.3 16.1 0.00 0.00 0.00 87 1010.2
20260508171502 22 87 11.3 16.1 0.00 0.00 0.00 87 1010.1
20260508171402 22 93 9.7 14.5 0.00 0.00 0.00 87 1010.2
20260508171303 22 92 9.7 14.5 0.00 0.00 0.00 87 1010.2
20260508171202 22 90 9.7 14.5 0.00 0.00 0.00 86 1010.2
20260508171103 22 104 8.0 14.5 0.00 0.00 0.00 86 1010.2
20260508171002 22 104 8.0 14.5 0.00 0.00 0.00 87 1010.1
20260508170902 22 73 8.0 16.1 0.00 0.00 0.00 87 1010.1
20260508170803 22 82 9.7 16.1 0.00 0.00 0.00 87 1010.1
20260508170702 22 76 9.7 16.1 0.00 0.00 0.00 87 1010.1
20260508170603 21 58 8.0 16.1 0.00 0.00 0.00 87 1010.1
20260508170500 21 120 8.0 16.1 0.00 0.00 0.00 87 1010.1
20260508170358 21 89 8.0 16.1 0.00 0.00 0.00 87 1010.1
20260508170253 21 96 8.0 16.1 0.00 0.00 0.00 87 1010.3
20260508170145 21 79 9.7 16.1 0.00 0.00 0.00 87 1010.2
20260508170046 21 82 11.3 16.1 0.00 0.00 0.00 87 1010.2
20260508165946 21 100 9.7 16.1 0.00 0.00 0.00 87 1010.2
20260508165846 21 120 8.0 16.1 0.00 0.00 0.00 88 1010.1
20260508165746 21 117 9.7 17.7 0.00 0.00 0.00 88 1010.2
20260508165645 21 73 9.7 19.3 0.00 0.00 0.00 88 1010.2
20260508165546 21 45 8.0 19.3 0.00 0.00 0.00 88 1010.2
20260508165445 21 51 8.0 19.3 0.00 0.00 0.00 88 1010.2
20260508165346 21 79 8.0 19.3 0.00 0.00 0.00 88 1010.3
20260508165247 21 52 6.4 19.3 0.00 0.00 0.00 88 1010.3
20260508165146 21 97 6.4 19.3 0.00 0.00 0.00 88 1010.3
20260508165046 21 89 8.0 19.3 0.00 0.00 0.00 88 1010.4
20260508164946 21 63 11.3 19.3 0.00 0.00 0.00 88 1010.3
20260508164845 21 75 14.5 19.3 0.00 0.00 0.00 88 1010.4
20260508164745 21 86 14.5 19.3 0.00 0.00 0.00 88 1010.4
20260508164645 21 97 11.3 20.9 0.00 0.00 0.00 88 1010.4
20260508164548 21 82 9.7 20.9 0.00 0.00 0.00 88 1010.5
20260508164445 21 86 9.7 20.9 0.00 0.00 0.00 87 1010.6
20260508164347 21 93 12.9 20.9 0.00 0.00 0.00 87 1010.6
20260508164246 21 85 14.5 20.9 0.00 0.00 0.00 88 1010.6
20260508164145 21 109 12.9 20.9 0.00 0.00 0.00 88 1010.5
20260508164047 21 76 12.9 20.9 0.00 0.00 0.00 88 1010.5
20260508163945 21 71 12.9 20.9 0.00 0.00 0.00 88 1010.5
20260508163847 21 72 12.9 20.9 0.00 0.00 0.00 88 1010.5
20260508163747 21 96 11.3 20.9 0.00 0.00 0.00 88 1010.4
20260508163646 21 104 9.7 19.3 0.00 0.00 0.00 88 1010.4
20260508163546 21 71 9.7 19.3 0.00 0.00 0.00 89 1010.4
20260508163445 21 78 9.7 19.3 0.00 0.00 0.00 89 1010.5
20260508163345 21 59 8.0 19.3 0.00 0.00 0.00 89 1010.5
20260508163245 21 39 11.3 19.3 0.00 0.00 0.00 89 1010.5
20260508163146 20 102 11.3 19.3 0.00 0.00 0.00 89 1010.6
20260508163045 20 106 9.7 19.3 0.00 0.00 0.00 89 1010.6
20260508162945 20 65 9.7 17.7 0.00 0.00 0.00 89 1010.6
20260508162845 20 73 9.7 17.7 0.00 0.00 0.00 89 1010.7
20260508162744 20 80 11.3 17.7 0.00 0.00 0.00 90 1010.7
20260508162645 20 62 9.7 14.5 0.00 0.00 0.00 90 1010.8
20260508162547 20 52 8.0 11.3 0.00 0.00 0.00 90 1010.8
20260508162446 20 69 8.0 11.3 0.00 0.00 0.00 90 1010.9
20260508162345 20 55 8.0 9.7 0.00 0.00 0.00 90 1010.9
20260508162245 20 48 8.0 9.7 0.00 0.00 0.00 90 1011.0
20260508162146 20 90 6.4 11.3 0.00 0.00 0.00 90 1011.1
20260508162046 20 73 6.4 14.5 0.00 0.00 0.00 90 1011.1
20260508161944 20 86 8.0 14.5 0.00 0.00 0.00 90 1011.1
20260508161844 20 113 8.0 14.5 0.00 0.00 0.00 90 1011.1
20260508161744 20 55 8.0 14.5 0.00 0.00 0.00 90 1011.1
20260508161646 20 80 8.0 14.5 0.00 0.00 0.00 90 1011.1
20260508161545 20 80 8.0 14.5 0.00 0.00 0.00 90 1011.1
20260508161445 20 80 8.0 14.5 0.00 0.00 0.00 90 1011.2
20260508161346 20 87 9.7 14.5 0.00 0.00 0.00 90 1011.2
20260508161245 20 111 9.7 14.5 0.00 0.00 0.00 90 1011.3
20260508161145 20 114 9.7 14.5 0.00 0.00 0.00 90 1011.2
20260508161045 20 86 11.3 14.5 0.00 0.00 0.00 90 1011.1
20260508160944 20 97 8.0 14.5 0.00 0.00 0.00 90 1011.2
20260508160844 20 78 4.8 11.3 0.00 0.00 0.00 90 1011.1
20260508160745 20 66 6.4 11.3 0.00 0.00 0.00 90 1011.1
20260508160645 20 65 6.4 11.3 0.00 0.00 0.00 90 1011.3
20260508160544 20 68 6.4 11.3 0.00 0.00 0.00 90 1011.3
20260508160445 20 63 8.0 11.3 0.00 0.00 0.00 90 1011.3
20260508160344 20 80 8.0 11.3 0.00 0.00 0.00 90 1011.4
20260508160245 20 55 8.0 11.3 0.00 0.00 0.00 89 1011.4
20260508160144 20 79 8.0 11.3 0.00 0.00 0.00 89 1011.4
20260508160046 20 80 6.4 11.3 0.00 0.00 0.00 90 1011.4
20260508155944 20 94 6.4 11.3 0.00 0.00 0.00 90 1011.3
20260508155844 20 86 4.8 17.7 0.00 0.00 0.00 90 1011.3
20260508155645 20 82 4.8 17.7 0.00 0.00 0.00 90 1011.2
20260508155544 20 62 6.4 17.7 0.00 0.00 0.00 90 1011.2
20260508155444 20 63 6.4 17.7 0.00 0.00 0.00 91 1011.2
20260508155346 20 51 3.2 17.7 0.00 0.00 0.00 91 1011.3
20260508155244 20 14 4.8 17.7 0.00 0.00 0.00 91 1011.2
20260508155145 20 45 6.4 17.7 0.00 0.00 0.00 91 1011.1
20260508155045 20 54 9.7 17.7 0.00 0.00 0.00 91 1011.1
20260508154945 20 32 11.3 17.7 0.00 0.00 0.00 91 1011.1
20260508154844 20 37 9.7 16.1 0.00 0.00 0.00 91 1011.1
20260508154744 20 37 11.3 16.1 0.00 0.00 0.00 91 1011.2
20260508154646 20 51 9.7 16.1 0.00 0.00 0.00 91 1011.2
20260508154543 20 30 8.0 14.5 0.00 0.00 0.00 91 1011.2
20260508154444 20 63 9.7 14.5 0.00 0.00 0.00 91 1011.2
20260508154346 20 35 11.3 14.5 0.00 0.00 0.00 90 1011.2
20260508154245 20 48 9.7 16.1 0.00 0.00 0.00 90 1011.3
20260508154143 20 48 6.4 16.1 0.00 0.00 0.00 90 1011.4
20260508154044 20 39 6.4 17.7 0.00 0.00 0.00 91 1011.6
20260508153944 20 39 6.4 19.3 0.00 0.00 0.00 90 1011.5
20260508153845 20 44 6.4 19.3 0.00 0.00 0.00 91 1011.5
20260508153743 20 28 6.4 19.3 0.00 0.00 0.00 91 1011.4
20260508153646 20 20 6.4 19.3 0.00 0.00 0.00 90 1011.4
20260508153545 20 32 9.7 19.3 0.00 0.00 0.00 90 1011.4
20260508153445 20 45 9.7 19.3 0.00 0.00 0.00 90 1011.4
20260508153344 20 47 9.7 19.3 0.00 0.00 0.00 90 1011.4
20260508153244 20 0 11.3 19.3 0.00 0.00 0.00 90 1011.3
20260508153143 20 31 12.9 19.3 0.00 0.00 0.00 90 1011.3
20260508153043 20 27 14.5 19.3 0.00 0.00 0.00 90 1011.3
20260508152943 20 30 11.3 19.3 0.00 0.00 0.00 90 1011.4
20260508152844 20 16 11.3 19.3 0.00 0.00 0.00 90 1011.3
20260508152743 20 20 11.3 19.3 0.00 0.00 0.00 90 1011.3
20260508152643 20 56 12.9 19.3 0.00 0.00 0.00 90 1011.3
20260508152545 20 0 12.9 19.3 0.00 0.00 0.00 90 1011.2
20260508152445 20 35 14.5 19.3 0.00 0.00 0.00 90 1011.3
20260508152344 20 49 14.5 19.3 0.00 0.00 0.00 90 1011.3
20260508152245 20 14 11.3 19.3 0.00 0.00 0.00 90 1011.3
20260508152144 20 45 6.4 19.3 0.00 0.00 0.00 90 1011.4
20260508152044 20 18 8.0 19.3 0.00 0.00 0.00 90 1011.4
20260508151943 20 31 11.3 19.3 0.00 0.00 0.00 90 1011.5
20260508151845 20 18 12.9 19.3 0.00 0.00 0.00 90 1011.4
20260508151743 20 32 12.9 19.3 0.00 0.00 0.00 90 1011.3
20260508151643 20 39 9.7 20.9 0.00 0.00 0.00 90 1011.4
20260508151544 20 20 8.0 20.9 0.00 0.00 0.00 90 1011.4
20260508151444 20 4 8.0 20.9 0.00 0.00 0.00 90 1011.4
20260508151343 20 319 11.3 20.9 0.00 0.00 0.00 89 1011.4
20260508151243 20 31 11.3 20.9 0.00 0.00 0.00 89 1011.4
20260508151144 20 30 9.7 20.9 0.00 0.00 0.00 89 1011.5
20260508151043 20 41 12.9 20.9 0.00 0.00 0.00 89 1011.4
20260508150943 20 47 12.9 20.9 0.00 0.00 0.00 89 1011.5
20260508150845 20 44 14.5 20.9 0.00 0.00 0.00 89 1011.4
20260508150743 20 55 14.5 20.9 0.00 0.00 0.00 89 1011.3
20260508150644 20 55 12.9 19.3 0.00 0.00 0.00 89 1011.3
20260508150543 20 27 17.7 19.3 0.00 0.00 0.00 89 1011.2
20260508150445 20 35 11.3 19.3 0.00 0.00 0.00 89 1011.2
20260508150344 20 35 11.3 24.1 0.00 0.00 0.00 89 1011.2
20260508150245 20 35 11.3 24.1 0.00 0.00 0.00 89 1011.3
20260508150135 20 37 9.7 24.1 0.00 0.00 0.00 89 1011.3
20260508150034 20 44 11.3 24.1 0.00 0.00 0.00 89 1011.3
20260508145932 20 39 11.3 24.1 0.00 0.00 0.00 89 1011.3
20260508145833 20 23 14.5 24.1 0.00 0.00 0.00 89 1011.3
20260508145733 20 32 14.5 24.1 0.00 0.00 0.00 89 1011.3
20260508145632 20 27 12.9 24.1 0.00 0.00 0.00 89 1011.4
20260508145532 20 44 12.9 24.1 0.00 0.00 0.00 89 1011.4
20260508145419 20 52 11.3 24.1 0.00 0.00 0.00 89 1011.4
20260508145316 20 18 9.7 17.7 0.00 0.00 0.00 89 1011.4
20260508145216 20 61 11.3 17.7 0.00 0.00 0.00 89 1011.4
20260508145113 20 34 11.3 17.7 0.00 0.00 0.00 89 1011.4
20260508145012 20 17 9.7 17.7 0.00 0.00 0.00 89 1011.3
20260508144911 20 54 9.7 17.7 0.00 0.00 0.00 89 1011.3
20260508144808 20 23 9.7 17.7 0.00 0.00 0.00 89 1011.5
20260508144708 20 35 9.7 17.7 0.00 0.00 0.00 89 1011.5
20260508144605 20 48 9.7 19.3 0.00 0.00 0.00 89 1011.6
20260508144504 20 24 11.3 19.3 0.00 0.00 0.00 89 1011.6
20260508144404 20 37 9.7 19.3 0.00 0.00 0.00 89 1011.6
20260508144303 20 23 9.7 19.3 0.00 0.00 0.00 89 1011.6
20260508144202 20 23 11.3 19.3 0.00 0.00 0.00 89 1011.6
20260508144102 20 54 12.9 19.3 0.00 0.00 0.00 88 1011.5
20260508144003 20 56 11.3 19.3 0.00 0.00 0.00 88 1011.6
20260508143901 20 30 11.3 20.9 0.00 0.00 0.00 88 1011.7
20260508143802 20 31 12.9 20.9 0.00 0.00 0.00 88 1011.7
20260508143704 20 61 14.5 20.9 0.00 0.00 0.00 88 1011.8
20260508143602 20 58 14.5 20.9 0.00 0.00 0.00 88 1011.9
20260508143504 20 31 12.9 20.9 0.00 0.00 0.00 88 1011.9
20260508143404 20 39 9.7 20.9 0.00 0.00 0.00 88 1011.9
20260508143303 20 25 11.3 20.9 0.00 0.00 0.00 88 1011.9
20260508143203 20 34 12.9 20.9 0.00 0.00 0.00 88 1011.9
20260508143102 20 37 12.9 20.9 0.00 0.00 0.00 88 1011.9
20260508143003 20 21 11.3 20.9 0.00 0.00 0.00 88 1011.9
20260508142904 20 18 11.3 19.3 0.00 0.00 0.00 88 1011.9
20260508142803 20 41 9.7 19.3 0.00 0.00 0.00 88 1011.9
20260508142702 20 23 9.7 19.3 0.00 0.00 0.00 87 1011.9
20260508142603 20 25 11.3 19.3 0.00 0.00 0.00 87 1011.9
20260508142504 20 38 12.9 19.3 0.00 0.00 0.00 87 1011.8
20260508142403 20 34 12.9 19.3 0.00 0.00 0.00 87 1011.8
20260508142306 20 32 11.3 17.7 0.00 0.00 0.00 87 1011.8
20260508142203 20 14 9.7 17.7 0.00 0.00 0.00 87 1011.8
20260508142103 20 32 8.0 16.1 0.00 0.00 0.00 87 1011.8
20260508142004 20 16 9.7 16.1 0.00 0.00 0.00 87 1011.8
20260508141902 20 358 9.7 16.1 0.00 0.00 0.00 86 1011.8
20260508141802 20 6 9.7 16.1 0.00 0.00 0.00 86 1011.8
20260508141704 20 0 8.0 16.1 0.00 0.00 0.00 86 1011.7
20260508141603 20 0 6.4 17.7 0.00 0.00 0.00 86 1011.7
20260508141503 20 21 6.4 19.3 0.00 0.00 0.00 86 1011.7
20260508141400 20 6 9.7 19.3 0.00 0.00 0.00 86 1011.7
20260508141258 20 28 11.3 19.3 0.00 0.00 0.00 86 1011.8
20260508141159 20 37 9.7 19.3 0.00 0.00 0.00 86 1011.8
20260508141056 20 44 9.7 19.3 0.00 0.00 0.00 86 1011.7
20260508140955 20 39 11.3 19.3 0.00 0.00 0.00 86 1011.8
20260508140854 20 30 11.3 19.3 0.00 0.00 0.00 86 1011.7
20260508140752 20 38 12.9 19.3 0.00 0.00 0.00 86 1011.7
20260508140652 20 17 14.5 19.3 0.00 0.00 0.00 86 1011.8
20260508140549 20 32 11.3 16.1 0.00 0.00 0.00 85 1011.7
20260508140446 20 37 9.7 16.1 0.00 0.00 0.00 86 1011.8
20260508140345 20 25 6.4 14.5 0.00 0.00 0.00 85 1011.8
20260508140244 20 66 8.0 14.5 0.00 0.00 0.00 85 1011.8
20260508140143 20 56 8.0 14.5 0.00 0.00 0.00 85 1011.8
20260508140043 20 68 9.7 14.5 0.00 0.00 0.00 85 1011.7
20260508135941 20 65 6.4 11.3 0.00 0.00 0.00 85 1011.6
20260508135841 20 31 4.8 11.3 0.00 0.00 0.00 86 1011.6
20260508135742 20 32 6.4 11.3 0.00 0.00 0.00 86 1011.5
20260508135641 20 11 4.8 11.3 0.00 0.00 0.00 86 1011.4
20260508135542 20 0 4.8 11.3 0.00 0.00 0.00 86 1011.5
20260508135442 20 0 8.0 11.3 0.00 0.00 0.00 85 1011.4
20260508135342 20 32 9.7 11.3 0.00 0.00 0.00 85 1011.3
20260508135242 20 31 9.7 11.3 0.00 0.00 0.00 85 1011.4
20260508135143 20 44 6.4 11.3 0.00 0.00 0.00 85 1011.4
20260508135041 20 11 4.8 11.3 0.00 0.00 0.00 85 1011.4
20260508134941 20 14 6.4 11.3 0.00 0.00 0.00 85 1011.4
20260508134842 20 1 8.0 11.3 0.00 0.00 0.00 85 1011.3
20260508134741 20 14 6.4 9.7 0.00 0.00 0.00 85 1011.3
20260508134641 20 6 6.4 8.0 0.00 0.00 0.00 85 1011.4
20260508134542 20 0 4.8 8.0 0.00 0.00 0.00 85 1011.4
20260508134441 20 351 4.8 8.0 0.00 0.00 0.00 85 1011.4
20260508134342 20 3 3.2 6.4 0.00 0.00 0.00 85 1011.5
20260508134241 20 3 4.8 6.4 0.00 0.00 0.00 85 1011.4
20260508134142 20 10 3.2 6.4 0.00 0.00 0.00 85 1011.4
20260508134040 20 11 3.2 6.4 0.00 0.00 0.00 84 1011.3
20260508133941 20 44 3.2 6.4 0.00 0.00 0.00 84 1011.4
20260508133842 20 45 1.6 6.4 0.00 0.00 0.00 85 1011.3
20260508133741 20 162 1.6 8.0 0.00 0.00 0.00 84 1011.3
20260508133641 20 100 1.6 8.0 0.00 0.00 0.00 85 1011.3
20260508133541 20 100 3.2 8.0 0.00 0.00 0.00 85 1011.2
20260508133442 20 100 3.2 8.0 0.00 0.00 0.00 85 1011.3
20260508133341 20 100 3.2 8.0 0.00 0.00 0.00 85 1011.2
20260508133240 20 107 3.2 8.0 0.00 0.00 0.00 85 1011.2
20260508133142 20 20 3.2 8.0 0.00 0.00 0.00 85 1011.2
20260508133042 20 18 3.2 11.3 0.00 0.00 0.00 85 1011.1
20260508132942 20 18 4.8 11.3 0.00 0.00 0.00 85 1011.1
20260508132841 20 17 4.8 11.3 0.00 0.00 0.00 85 1011.1
20260508132741 20 13 3.2 16.1 0.00 0.00 0.00 85 1011.0
20260508132640 20 14 4.8 16.1 0.00 0.00 0.00 85 1011.0
20260508132540 20 14 4.8 16.1 0.00 0.00 0.00 85 1011.0
20260508132441 20 13 6.4 16.1 0.00 0.00 0.00 85 1011.0
20260508132340 20 20 6.4 16.1 0.00 0.00 0.00 85 1011.1
20260508132240 20 14 6.4 16.1 0.00 0.00 0.00 85 1011.0
20260508132140 20 17 8.0 16.1 0.00 0.00 0.00 85 1010.9
20260508132041 20 21 8.0 16.1 0.00 0.00 0.00 85 1010.9
20260508131940 20 20 9.7 16.1 0.00 0.00 0.00 85 1010.9
20260508131841 20 21 11.3 16.1 0.00 0.00 0.00 85 1010.9
20260508131740 20 21 11.3 16.1 0.00 0.00 0.00 85 1010.8
20260508131641 20 17 9.7 16.1 0.00 0.00 0.00 85 1010.8
20260508131540 20 16 9.7 16.1 0.00 0.00 0.00 85 1010.8
20260508131440 20 20 9.7 16.1 0.00 0.00 0.00 85 1010.9
20260508131341 20 20 9.7 16.1 0.00 0.00 0.00 85 1010.9
20260508131240 20 20 9.7 16.1 0.00 0.00 0.00 85 1010.9
20260508131140 20 18 11.3 16.1 0.00 0.00 0.00 85 1010.9
20260508131041 20 18 12.9 16.1 0.00 0.00 0.00 85 1011.0
20260508130940 20 17 11.3 16.1 0.00 0.00 0.00 85 1011.0
20260508130841 20 28 9.7 14.5 0.00 0.00 0.00 85 1011.0
20260508130742 20 14 9.7 14.5 0.00 0.00 0.00 85 1011.1
20260508130640 20 18 9.7 14.5 0.00 0.00 0.00 85 1011.1
20260508130541 20 17 8.0 14.5 0.00 0.00 0.00 85 1011.1
20260508130440 20 20 8.0 14.5 0.00 0.00 0.00 85 1011.1
20260508130342 20 17 9.7 14.5 0.00 0.00 0.00 84 1011.2
20260508130241 20 18 9.7 14.5 0.00 0.00 0.00 85 1011.2
20260508130141 20 16 8.0 11.3 0.00 0.00 0.00 85 1011.2
20260508130041 20 14 8.0 11.3 0.00 0.00 0.00 84 1011.2
20260508125940 20 14 8.0 11.3 0.00 0.00 0.00 84 1011.1
20260508125841 20 16 6.4 11.3 0.00 0.00 0.00 85 1011.1
20260508125740 20 18 6.4 11.3 0.00 0.00 0.00 84 1011.1
20260508125640 20 16 8.0 11.3 0.00 0.00 0.00 84 1011.2
20260508125541 20 16 6.4 11.3 0.00 0.00 0.00 84 1011.2
20260508125441 20 6 3.2 9.7 0.00 0.00 0.00 84 1011.3
20260508125342 20 4 3.2 9.7 0.00 0.00 0.00 85 1011.3
20260508125239 20 3 1.6 9.7 0.00 0.00 0.00 85 1011.3
20260508125139 20 3 0.0 9.7 0.00 0.00 0.00 85 1011.3
20260508125040 20 8 1.6 9.7 0.00 0.00 0.00 85 1011.3
20260508124941 20 8 4.8 11.3 0.00 0.00 0.00 85 1011.2
20260508124840 20 8 4.8 11.3 0.00 0.00 0.00 85 1011.2
20260508124739 20 8 4.8 11.3 0.00 0.00 0.00 85 1011.1
20260508124639 20 10 6.4 11.3 0.00 0.00 0.00 85 1011.0
20260508124539 20 13 6.4 11.3 0.00 0.00 0.00 85 1011.0
20260508124441 20 7 8.0 11.3 0.00 0.00 0.00 85 1010.9
20260508124340 20 10 8.0 11.3 0.00 0.00 0.00 85 1010.9
20260508124240 20 6 8.0 11.3 0.00 0.00 0.00 85 1010.9
20260508124140 20 7 8.0 11.3 0.00 0.00 0.00 85 1010.9
20260508124039 20 7 6.4 11.3 0.00 0.00 0.00 85 1011.0
20260508123939 20 8 4.8 11.3 0.00 0.00 0.00 85 1011.0
20260508123839 20 4 4.8 11.3 0.00 0.00 0.00 85 1010.9
20260508123740 20 4 6.4 11.3 0.00 0.00 0.00 85 1011.0
20260508123640 20 0 6.4 11.3 0.00 0.00 0.00 85 1010.9
20260508123540 20 1 6.4 11.3 0.00 0.00 0.00 86 1011.0
20260508123439 20 1 4.8 11.3 0.00 0.00 0.00 86 1011.0
20260508123339 20 6 6.4 11.3 0.00 0.00 0.00 85 1011.0
20260508123240 20 7 6.4 11.3 0.00 0.00 0.00 85 1011.0
20260508123139 20 7 6.4 11.3 0.00 0.00 0.00 85 1011.0
20260508123040 20 3 4.8 11.3 0.00 0.00 0.00 85 1011.0
20260508122939 20 1 3.2 11.3 0.00 0.00 0.00 85 1011.1
20260508122839 20 6 6.4 11.3 0.00 0.00 0.00 85 1011.1
20260508122739 20 6 6.4 11.3 0.00 0.00 0.00 85 1011.1
20260508122639 20 3 6.4 9.7 0.00 0.00 0.00 85 1011.2
20260508122540 20 0 4.8 9.7 0.00 0.00 0.00 85 1011.3
20260508122440 20 0 6.4 9.7 0.00 0.00 0.00 85 1011.3
20260508122340 20 0 6.4 11.3 0.00 0.00 0.00 85 1011.2
20260508122240 20 1 4.8 11.3 0.00 0.00 0.00 85 1011.4
20260508122140 20 0 4.8 11.3 0.00 0.00 0.00 85 1011.4
20260508122039 20 0 4.8 11.3 0.00 0.00 0.00 85 1011.4
20260508121939 20 0 4.8 11.3 0.00 0.00 0.00 85 1011.4
20260508121840 20 0 4.8 11.3 0.00 0.00 0.00 85 1011.5
20260508121739 20 0 4.8 11.3 0.00 0.00 0.00 85 1011.5
20260508121639 20 3 6.4 11.3 0.00 0.00 0.00 85 1011.5
20260508121539 20 0 6.4 11.3 0.00 0.00 0.00 85 1011.5
20260508121439 20 4 6.4 11.3 0.00 0.00 0.00 85 1011.5
20260508121339 20 3 4.8 8.0 0.00 0.00 0.00 85 1011.5
20260508121240 20 4 4.8 8.0 0.00 0.00 0.00 85 1011.4
20260508121140 20 4 4.8 8.0 0.00 0.00 0.00 85 1011.4
20260508121038 20 4 4.8 8.0 0.00 0.00 0.00 85 1011.5
20260508120939 20 6 4.8 8.0 0.00 0.00 0.00 85 1011.5
20260508120840 20 7 3.2 6.4 0.00 0.00 0.00 85 1011.6
20260508120739 20 8 3.2 6.4 0.00 0.00 0.00 85 1011.6
20260508120639 20 1 3.2 8.0 0.00 0.00 0.00 85 1011.6
20260508120541 20 1 3.2 8.0 0.00 0.00 0.00 85 1011.6
20260508120440 20 1 3.2 11.3 0.00 0.00 0.00 85 1011.5
20260508120339 20 1 3.2 11.3 0.00 0.00 0.00 85 1011.5
20260508120239 20 0 3.2 11.3 0.00 0.00 0.00 85 1011.5
20260508120141 20 0 3.2 11.3 0.00 0.00 0.00 85 1011.5
20260508120040 20 0 3.2 11.3 0.00 0.00 0.00 85 1011.5
20260508115939 20 0 3.2 11.3 0.00 0.00 0.00 85 1011.4
20260508115840 20 3 4.8 11.3 0.00 0.00 0.00 85 1011.4
20260508115740 20 7 6.4 11.3 0.00 0.00 0.00 85 1011.4
20260508115639 20 7 8.0 11.3 0.00 0.00 0.00 85 1011.3
20260508115539 20 10 8.0 11.3 0.00 0.00 0.00 85 1011.4
20260508115438 20 8 8.0 11.3 0.00 0.00 0.00 85 1011.4
20260508115339 20 8 8.0 11.3 0.00 0.00 0.00 85 1011.4
20260508115238 20 4 6.4 11.3 0.00 0.00 0.00 85 1011.4
20260508115138 20 6 6.4 11.3 0.00 0.00 0.00 85 1011.4
20260508115039 20 6 4.8 11.3 0.00 0.00 0.00 85 1011.4
20260508114938 20 10 4.8 11.3 0.00 0.00 0.00 85 1011.4
20260508114838 20 4 6.4 11.3 0.00 0.00 0.00 85 1011.4
20260508114739 20 6 6.4 11.3 0.00 0.00 0.00 85 1011.3
20260508114639 20 1 6.4 11.3 0.00 0.00 0.00 85 1011.4
20260508114539 20 6 4.8 11.3 0.00 0.00 0.00 85 1011.4
20260508114438 20 4 4.8 11.3 0.00 0.00 0.00 85 1011.4
20260508114340 20 13 6.4 11.3 0.00 0.00 0.00 85 1011.4
20260508114238 20 14 8.0 11.3 0.00 0.00 0.00 85 1011.3
20260508114138 20 14 8.0 11.3 0.00 0.00 0.00 85 1011.4
20260508114040 20 8 8.0 11.3 0.00 0.00 0.00 85 1011.5
20260508113939 20 11 6.4 11.3 0.00 0.00 0.00 85 1011.6
20260508113839 20 11 6.4 11.3 0.00 0.00 0.00 85 1011.6
20260508113738 20 10 4.8 11.3 0.00 0.00 0.00 85 1011.6
20260508113640 20 11 3.2 11.3 0.00 0.00 0.00 85 1011.6
20260508113540 20 13 4.8 11.3 0.00 0.00 0.00 85 1011.7
20260508113438 20 13 4.8 11.3 0.00 0.00 0.00 85 1011.7
20260508113339 20 11 4.8 11.3 0.00 0.00 0.00 85 1011.8
20260508113239 20 8 6.4 11.3 0.00 0.00 0.00 85 1011.8
20260508113138 20 11 8.0 11.3 0.00 0.00 0.00 85 1011.8
20260508113039 20 13 6.4 11.3 0.00 0.00 0.00 85 1011.7
20260508112939 20 6 3.2 9.7 0.00 0.00 0.00 85 1011.6
20260508112837 20 4 4.8 9.7 0.00 0.00 0.00 85 1011.6
20260508112738 20 4 6.4 9.7 0.00 0.00 0.00 85 1011.6
20260508112640 20 6 6.4 8.0 0.00 0.00 0.00 85 1011.5
20260508112538 20 10 6.4 9.7 0.00 0.00 0.00 85 1011.5
20260508112440 20 8 4.8 9.7 0.00 0.00 0.00 85 1011.6
20260508112340 20 0 3.2 9.7 0.00 0.00 0.00 85 1011.6
20260508112239 20 0 4.8 9.7 0.00 0.00 0.00 85 1011.6
20260508112138 20 0 4.8 11.3 0.00 0.00 0.00 85 1011.6
20260508112037 20 0 3.2 14.5 0.00 0.00 0.00 85 1011.4
20260508111934 20 0 4.8 14.5 0.00 0.00 0.00 85 1011.3
20260508111834 20 1 4.8 14.5 0.00 0.00 0.00 85 1011.3
20260508111732 20 7 4.8 14.5 0.00 0.00 0.00 85 1011.1
20260508111632 20 13 4.8 14.5 0.00 0.00 0.00 85 1010.9
20260508111532 20 11 4.8 14.5 0.00 0.00 0.00 85 1010.8
20260508111431 20 11 6.4 14.5 0.00 0.00 0.00 85 1010.7
20260508111332 20 13 8.0 14.5 0.00 0.00 0.00 85 1010.6
20260508111231 20 8 8.0 14.5 0.00 0.00 0.00 85 1010.6
20260508111131 20 13 9.7 14.5 0.00 0.00 0.00 85 1010.6
20260508111031 20 14 9.7 14.5 0.00 0.00 0.00 85 1010.6
20260508110931 20 13 8.0 14.5 0.00 0.00 0.00 85 1010.6
20260508110832 20 11 6.4 16.1 0.00 0.00 0.00 85 1010.6
20260508110732 20 14 8.0 16.1 0.00 0.00 0.00 85 1010.6
20260508110632 20 18 6.4 16.1 0.00 0.00 0.00 85 1010.6
20260508110531 20 11 6.4 16.1 0.00 0.00 0.00 85 1010.7
20260508110431 20 11 8.0 16.1 0.00 0.00 0.00 85 1010.6
20260508110332 20 10 9.7 16.1 0.00 0.00 0.00 85 1010.7
20260508110232 20 14 8.0 16.1 0.00 0.00 0.00 85 1010.7
20260508110131 20 13 8.0 16.1 0.00 0.00 0.00 86 1010.7
20260508110031 20 17 9.7 16.1 0.00 0.00 0.00 86 1010.7
20260508105931 20 18 11.3 16.1 0.00 0.00 0.00 86 1010.7
20260508105832 20 18 11.3 14.5 0.00 0.00 0.00 86 1010.7
20260508105731 20 13 11.3 14.5 0.00 0.00 0.00 86 1010.7
20260508105626 20 11 9.7 14.5 0.00 0.00 0.00 86 1010.7
20260508105525 20 16 8.0 11.3 0.00 0.00 0.00 86 1010.8
20260508105425 20 17 8.0 11.3 0.00 0.00 0.00 86 1010.8
20260508105323 20 13 8.0 11.3 0.00 0.00 0.00 86 1010.9
20260508105214 20 14 6.4 11.3 0.00 0.00 0.00 86 1010.9
20260508105114 20 10 6.4 11.3 0.00 0.00 0.00 86 1011.0
20260508105011 20 11 6.4 11.3 0.00 0.00 0.00 86 1011.0
20260508104910 20 7 6.4 11.3 0.00 0.00 0.00 86 1011.0
20260508104809 20 8 9.7 11.3 0.00 0.00 0.00 86 1011.0
20260508104709 20 11 8.0 11.3 0.00 0.00 0.00 86 1011.1
20260508104606 20 8 8.0 11.3 0.00 0.00 0.00 86 1011.1
20260508104506 20 10 8.0 11.3 0.00 0.00 0.00 86 1011.1
20260508104402 20 6 9.7 11.3 0.00 0.00 0.00 86 1011.1
20260508104302 20 7 9.7 11.3 0.00 0.00 0.00 86 1011.1
20260508104203 20 7 8.0 11.3 0.00 0.00 0.00 86 1011.3
20260508104102 20 6 6.4 11.3 0.00 0.00 0.00 87 1011.3
20260508104003 20 4 6.4 9.7 0.00 0.00 0.00 86 1011.4
20260508103902 20 0 8.0 9.7 0.00 0.00 0.00 87 1011.3
20260508103803 20 0 6.4 9.7 0.00 0.00 0.00 87 1011.3
20260508103702 20 1 4.8 9.7 0.00 0.00 0.00 87 1011.3
20260508103602 20 0 4.8 9.7 0.00 0.00 0.00 87 1011.4
20260508103503 20 0 4.8 9.7 0.00 0.00 0.00 87 1011.4
20260508103403 20 0 4.8 9.7 0.00 0.00 0.00 87 1011.4
20260508103301 20 3 6.4 9.7 0.00 0.00 0.00 87 1011.4
20260508103202 20 3 6.4 14.5 0.00 0.00 0.00 87 1011.5
20260508103103 20 6 4.8 14.5 0.00 0.00 0.00 87 1011.4
20260508103002 20 6 4.8 14.5 0.00 0.00 0.00 86 1011.3
20260508102902 20 8 6.4 14.5 0.00 0.00 0.00 86 1011.2
20260508102803 20 11 6.4 16.1 0.00 0.00 0.00 86 1011.0
20260508102701 20 8 8.0 16.1 0.00 0.00 0.00 86 1011.0
20260508102603 20 13 8.0 16.1 0.00 0.00 0.00 86 1011.0
20260508102503 20 13 8.0 16.1 0.00 0.00 0.00 86 1010.9
20260508102403 20 13 8.0 16.1 0.00 0.00 0.00 86 1010.9
20260508102306 20 13 8.0 16.1 0.00 0.00 0.00 86 1010.7
20260508102202 20 10 9.7 16.1 0.00 0.00 0.00 86 1010.6
20260508102103 20 14 9.7 16.1 0.00 0.00 0.00 86 1010.6
20260508102004 20 16 9.7 16.1 0.00 0.00 0.00 86 1010.5
20260508101903 20 8 9.7 17.7 0.00 0.00 0.00 86 1010.6
20260508101803 20 10 9.7 17.7 0.00 0.00 0.00 86 1010.6
20260508101702 20 6 11.3 17.7 0.00 0.00 0.00 86 1010.5
20260508101603 20 13 9.7 17.7 0.00 0.00 0.00 86 1010.5
20260508101502 20 4 8.0 17.7 0.00 0.00 0.00 86 1010.5
20260508101403 20 13 8.0 17.7 0.00 0.00 0.00 86 1010.5
20260508101303 20 10 8.0 17.7 0.00 0.00 0.00 86 1010.7
20260508101202 20 16 8.0 17.7 0.00 0.00 0.00 86 1010.7
20260508101103 20 10 9.7 17.7 0.00 0.00 0.00 86 1010.7
20260508101003 20 11 11.3 17.7 0.00 0.00 0.00 86 1010.6
20260508100902 20 10 9.7 16.1 0.00 0.00 0.00 86 1010.7
20260508100802 20 11 8.0 16.1 0.00 0.00 0.00 86 1010.8
20260508100704 20 8 6.4 16.1 0.00 0.00 0.00 86 1010.9
20260508100602 20 7 6.4 16.1 0.00 0.00 0.00 86 1011.0
20260508100502 20 0 6.4 16.1 0.00 0.00 0.00 86 1011.1
20260508100403 20 11 9.7 16.1 0.00 0.00 0.00 86 1011.1
20260508100302 20 10 9.7 16.1 0.00 0.00 0.00 86 1011.1
20260508100202 20 4 9.7 16.1 0.00 0.00 0.00 86 1011.2
20260508100103 20 8 9.7 16.1 0.00 0.00 0.00 86 1011.1
20260508100003 20 6 8.0 16.1 0.00 0.00 0.00 86 1011.2
20260508095902 20 11 8.0 16.1 0.00 0.00 0.00 87 1011.2
20260508095802 20 8 8.0 16.1 0.00 0.00 0.00 86 1011.3
20260508095702 20 6 8.0 16.1 0.00 0.00 0.00 86 1011.3
20260508095602 20 6 9.7 16.1 0.00 0.00 0.00 86 1011.3
20260508095502 20 4 8.0 16.1 0.00 0.00 0.00 86 1011.4
20260508095403 20 0 6.4 16.1 0.00 0.00 0.00 87 1011.3
20260508095306 20 1 6.4 16.1 0.00 0.00 0.00 87 1011.3
20260508095203 20 3 8.0 11.3 0.00 0.00 0.00 86 1011.3
20260508095102 20 7 8.0 11.3 0.00 0.00 0.00 86 1011.3
20260508095003 20 4 6.4 11.3 0.00 0.00 0.00 86 1011.3
20260508094903 20 4 6.4 16.1 0.00 0.00 0.00 86 1011.3
20260508094802 20 0 4.8 16.1 0.00 0.00 0.00 86 1011.3
20260508094703 20 0 3.2 16.1 0.00 0.00 0.00 86 1011.3
20260508094604 20 0 4.8 16.1 0.00 0.00 0.00 86 1011.3
20260508094503 20 0 4.8 16.1 0.00 0.00 0.00 86 1011.4
20260508094402 20 0 4.8 16.1 0.00 0.00 0.00 86 1011.4
20260508094303 20 0 4.8 16.1 0.00 0.00 0.00 86 1011.4
20260508094203 20 0 6.4 16.1 0.00 0.00 0.00 86 1011.4
20260508094103 20 4 8.0 16.1 0.00 0.00 0.00 86 1011.3
20260508094004 20 3 8.0 16.1 0.00 0.00 0.00 86 1011.2
20260508093903 20 0 6.4 14.5 0.00 0.00 0.00 86 1011.1
20260508093803 20 7 6.4 19.3 0.00 0.00 0.00 86 1011.1
20260508093704 20 4 8.0 19.3 0.00 0.00 0.00 86 1010.9
20260508093602 20 13 6.4 19.3 0.00 0.00 0.00 86 1010.8
20260508093502 20 7 6.4 19.3 0.00 0.00 0.00 86 1010.6
20260508093403 20 11 8.0 19.3 0.00 0.00 0.00 86 1010.6
20260508093303 20 16 8.0 19.3 0.00 0.00 0.00 86 1010.5
20260508093202 20 17 9.7 19.3 0.00 0.00 0.00 86 1010.6
20260508093102 20 13 9.7 19.3 0.00 0.00 0.00 86 1010.6
20260508093005 20 13 9.7 22.5 0.00 0.00 0.00 86 1010.6
20260508092903 20 14 12.9 22.5 0.00 0.00 0.00 86 1010.6
20260508092803 20 16 12.9 22.5 0.00 0.00 0.00 86 1010.5
20260508092702 20 17 14.5 22.5 0.00 0.00 0.00 86 1010.5
20260508092602 20 14 12.9 22.5 0.00 0.00 0.00 86 1010.5
20260508092503 20 10 11.3 22.5 0.00 0.00 0.00 86 1010.5
20260508092401 20 17 9.7 22.5 0.00 0.00 0.00 86 1010.5
20260508092312 20 14 11.3 22.5 0.00 0.00 0.00 86 1010.5
20260508092202 20 16 16.1 22.5 0.00 0.00 0.00 86 1010.4
20260508092101 20 18 16.1 22.5 0.00 0.00 0.00 86 1010.3
20260508092003 20 13 14.5 20.9 0.00 0.00 0.00 86 1010.4
20260508091903 20 18 14.5 20.9 0.00 0.00 0.00 86 1010.5
20260508091802 20 16 14.5 20.9 0.00 0.00 0.00 86 1010.6
20260508091702 20 10 11.3 17.7 0.00 0.00 0.00 86 1010.6
20260508091604 20 11 8.0 14.5 0.00 0.00 0.00 86 1010.6
20260508091502 20 11 6.4 14.5 0.00 0.00 0.00 86 1010.7
20260508091401 20 8 6.4 14.5 0.00 0.00 0.00 86 1010.8
20260508091300 20 8 8.0 14.5 0.00 0.00 0.00 86 1010.8
20260508091159 20 7 6.4 14.5 0.00 0.00 0.00 86 1010.8
20260508091056 20 7 6.4 14.5 0.00 0.00 0.00 86 1010.8
20260508090955 20 8 8.0 14.5 0.00 0.00 0.00 85 1010.8
20260508090852 20 7 9.7 14.5 0.00 0.00 0.00 85 1010.8
20260508090751 20 8 8.0 14.5 0.00 0.00 0.00 85 1010.8
20260508090649 20 6 8.0 11.3 0.00 0.00 0.00 85 1010.7
20260508090549 20 6 8.0 11.3 0.00 0.00 0.00 85 1010.7
20260508090446 20 8 8.0 11.3 0.00 0.00 0.00 85 1010.7
20260508090342 20 8 8.0 11.3 0.00 0.00 0.00 85 1010.9
20260508090239 20 8 9.7 11.3 0.00 0.00 0.00 85 1010.9
20260508090138 20 7 8.0 11.3 0.00 0.00 0.00 85 1011.0
20260508090039 20 7 8.0 11.3 0.00 0.00 0.00 85 1011.0
20260508085935 20 14 6.4 11.3 0.00 0.00 0.00 85 1011.1
20260508085835 20 11 6.4 11.3 0.00 0.00 0.00 85 1011.1
20260508085736 20 13 6.4 11.3 0.00 0.00 0.00 85 1011.1
20260508085634 20 13 8.0 11.3 0.00 0.00 0.00 85 1011.1
20260508085534 20 11 9.7 11.3 0.00 0.00 0.00 85 1011.1
20260508085434 20 11 8.0 9.7 0.00 0.00 0.00 85 1011.1
20260508085335 20 7 6.4 9.7 0.00 0.00 0.00 85 1011.2
20260508085234 20 10 4.8 9.7 0.00 0.00 0.00 85 1011.1
20260508085134 20 8 6.4 9.7 0.00 0.00 0.00 85 1011.0
20260508085035 20 8 8.0 9.7 0.00 0.00 0.00 85 1011.0
20260508084934 20 8 8.0 9.7 0.00 0.00 0.00 85 1011.0
20260508084835 20 6 6.4 9.7 0.00 0.00 0.00 85 1011.0
20260508084735 20 10 6.4 9.7 0.00 0.00 0.00 85 1011.0
20260508084635 20 8 6.4 9.7 0.00 0.00 0.00 85 1011.1
20260508084534 20 11 6.4 9.7 0.00 0.00 0.00 85 1011.1
20260508084434 20 6 6.4 9.7 0.00 0.00 0.00 85 1011.1
20260508084335 20 10 6.4 9.7 0.00 0.00 0.00 85 1011.1
20260508084234 20 10 6.4 9.7 0.00 0.00 0.00 85 1011.1
20260508084135 20 10 6.4 9.7 0.00 0.00 0.00 85 1011.2
20260508084035 20 10 6.4 9.7 0.00 0.00 0.00 85 1011.2
20260508083935 20 8 4.8 9.7 0.00 0.00 0.00 85 1011.2
20260508083834 20 11 4.8 9.7 0.00 0.00 0.00 85 1011.2
20260508083734 20 7 4.8 9.7 0.00 0.00 0.00 85 1011.3
20260508083635 20 8 6.4 9.7 0.00 0.00 0.00 85 1011.2
20260508083534 20 7 6.4 9.7 0.00 0.00 0.00 85 1011.3
20260508083435 20 4 4.8 9.7 0.00 0.00 0.00 85 1011.3
20260508083334 20 4 4.8 9.7 0.00 0.00 0.00 85 1011.3
20260508083233 20 4 4.8 11.3 0.00 0.00 0.00 85 1011.3
20260508083136 20 3 4.8 11.3 0.00 0.00 0.00 85 1011.3
20260508083032 20 3 4.8 16.1 0.00 0.00 0.00 85 1011.2
20260508082931 20 3 6.4 16.1 0.00 0.00 0.00 84 1011.3
20260508082831 20 3 6.4 16.1 0.00 0.00 0.00 84 1011.2
20260508082732 20 3 8.0 16.1 0.00 0.00 0.00 84 1011.3
20260508082631 20 6 6.4 16.1 0.00 0.00 0.00 84 1011.2
20260508082530 20 4 6.4 16.1 0.00 0.00 0.00 84 1011.2
20260508082431 20 6 8.0 16.1 0.00 0.00 0.00 84 1011.2
20260508082332 20 4 9.7 16.1 0.00 0.00 0.00 84 1011.1
20260508082230 20 6 9.7 17.7 0.00 0.00 0.00 84 1011.1
20260508082128 20 7 8.0 17.7 0.00 0.00 0.00 84 1011.1
20260508082023 20 6 8.0 17.7 0.00 0.00 0.00 84 1011.0
20260508081921 20 8 8.0 17.7 0.00 0.00 0.00 84 1011.0
20260508081821 20 6 8.0 17.7 0.00 0.00 0.00 84 1011.0
20260508081718 20 7 9.7 19.3 0.00 0.00 0.00 84 1010.9
20260508081617 20 8 9.7 19.3 0.00 0.00 0.00 84 1011.0
20260508081516 20 4 8.0 19.3 0.00 0.00 0.00 84 1010.9
20260508081415 20 10 9.7 19.3 0.00 0.00 0.00 84 1010.9
20260508081313 20 6 12.9 19.3 0.00 0.00 0.00 84 1010.9
20260508081210 20 7 11.3 19.3 0.00 0.00 0.00 84 1010.9
20260508081108 20 7 9.7 19.3 0.00 0.00 0.00 84 1010.9
20260508081007 20 6 11.3 19.3 0.00 0.00 0.00 84 1010.9
20260508080903 20 11 14.5 19.3 0.00 0.00 0.00 84 1010.8
20260508080804 20 7 12.9 19.3 0.00 0.00 0.00 84 1010.9
20260508080704 20 8 12.9 17.7 0.00 0.00 0.00 84 1011.0
20260508080602 20 6 12.9 17.7 0.00 0.00 0.00 84 1010.9
20260508080504 20 3 12.9 17.7 0.00 0.00 0.00 84 1010.9
20260508080403 20 7 11.3 17.7 0.00 0.00 0.00 84 1011.0
20260508080303 20 7 9.7 17.7 0.00 0.00 0.00 84 1011.1
20260508080203 20 8 9.7 17.7 0.00 0.00 0.00 84 1011.2
20260508080002 20 6 8.0 14.5 0.00 0.00 0.00 84 1011.2
20260508075903 20 7 8.0 14.5 0.00 0.00 0.00 84 1011.3
20260508075804 20 0 8.0 14.5 0.00 0.00 0.00 84 1011.4
20260508075702 20 0 6.4 11.3 0.00 0.00 0.00 84 1011.4
20260508075602 20 6 6.4 11.3 0.00 0.00 0.00 84 1011.5
20260508075503 20 0 6.4 11.3 0.00 0.00 0.00 84 1011.5
20260508075403 20 3 6.4 11.3 0.00 0.00 0.00 84 1011.5
20260508075301 20 3 6.4 11.3 0.00 0.00 0.00 84 1011.5
20260508075203 20 0 4.8 11.3 0.00 0.00 0.00 84 1011.4
20260508075103 20 6 4.8 14.5 0.00 0.00 0.00 84 1011.5
20260508075004 20 4 4.8 14.5 0.00 0.00 0.00 84 1011.4
20260508074902 20 4 6.4 14.5 0.00 0.00 0.00 84 1011.4
20260508074802 20 6 6.4 14.5 0.00 0.00 0.00 84 1011.4
20260508074703 20 3 6.4 14.5 0.00 0.00 0.00 83 1011.4
20260508074602 20 4 8.0 14.5 0.00 0.00 0.00 84 1011.3
20260508074503 20 4 8.0 14.5 0.00 0.00 0.00 84 1011.4
20260508074403 20 0 6.4 14.5 0.00 0.00 0.00 84 1011.4
20260508074302 20 3 6.4 14.5 0.00 0.00 0.00 84 1011.4
20260508074202 20 0 6.4 14.5 0.00 0.00 0.00 84 1011.5
20260508074103 20 3 4.8 14.5 0.00 0.00 0.00 84 1011.5
20260508074004 20 4 3.2 14.5 0.00 0.00 0.00 84 1011.6
20260508073902 20 0 4.8 14.5 0.00 0.00 0.00 84 1011.6
20260508073802 20 0 6.4 14.5 0.00 0.00 0.00 84 1011.6
20260508073704 20 6 8.0 14.5 0.00 0.00 0.00 84 1011.6
20260508073603 20 7 8.0 14.5 0.00 0.00 0.00 84 1011.7
20260508073505 20 3 6.4 14.5 0.00 0.00 0.00 83 1011.6
20260508073402 20 3 6.4 9.7 0.00 0.00 0.00 83 1011.7
20260508073302 20 3 6.4 9.7 0.00 0.00 0.00 83 1011.6
20260508073202 20 0 4.8 11.3 0.00 0.00 0.00 83 1011.6
20260508073102 20 0 4.8 11.3 0.00 0.00 0.00 83 1011.6
20260508073005 20 3 3.2 14.5 0.00 0.00 0.00 83 1011.6
20260508072902 20 0 4.8 14.5 0.00 0.00 0.00 83 1011.6
20260508072803 20 0 6.4 14.5 0.00 0.00 0.00 83 1011.5
20260508072703 20 7 6.4 14.5 0.00 0.00 0.00 83 1011.5
20260508072602 20 1 4.8 14.5 0.00 0.00 0.00 83 1011.5
20260508072502 20 0 4.8 14.5 0.00 0.00 0.00 83 1011.4
20260508072403 20 1 6.4 14.5 0.00 0.00 0.00 83 1011.5
20260508072307 20 0 6.4 14.5 0.00 0.00 0.00 83 1011.4
20260508072204 20 4 8.0 14.5 0.00 0.00 0.00 83 1011.4
20260508072103 20 0 8.0 14.5 0.00 0.00 0.00 83 1011.4
20260508072004 20 6 4.8 11.3 0.00 0.00 0.00 83 1011.3
20260508071903 20 0 6.4 11.3 0.00 0.00 0.00 83 1011.3
20260508071802 20 4 8.0 11.3 0.00 0.00 0.00 83 1011.3
20260508071703 20 7 6.4 11.3 0.00 0.00 0.00 83 1011.3
20260508071602 20 6 6.4 9.7 0.00 0.00 0.00 83 1011.3
20260508071502 20 6 6.4 9.7 0.00 0.00 0.00 83 1011.3
20260508071402 20 7 6.4 9.7 0.00 0.00 0.00 83 1011.4
20260508071302 20 3 3.2 14.5 0.00 0.00 0.00 83 1011.4
20260508071202 20 1 3.2 14.5 0.00 0.00 0.00 83 1011.5
20260508071104 20 1 4.8 14.5 0.00 0.00 0.00 84 1011.5
20260508071003 20 1 4.8 14.5 0.00 0.00 0.00 84 1011.5
20260508070902 20 10 4.8 14.5 0.00 0.00 0.00 84 1011.5
20260508070804 20 8 8.0 14.5 0.00 0.00 0.00 84 1011.4
20260508070704 20 8 8.0 14.5 0.00 0.00 0.00 84 1011.3
20260508070603 20 8 8.0 14.5 0.00 0.00 0.00 84 1011.3
20260508070504 20 8 8.0 14.5 0.00 0.00 0.00 84 1011.3
20260508070402 20 0 6.4 14.5 0.00 0.00 0.00 84 1011.3
20260508070304 20 3 3.2 8.0 0.00 0.00 0.00 84 1011.3
20260508070202 20 4 3.2 8.0 0.00 0.00 0.00 84 1011.4
20260508070105 20 4 3.2 8.0 0.00 0.00 0.00 84 1011.4
20260508070003 20 4 4.8 8.0 0.00 0.00 0.00 84 1011.4
20260508065902 20 4 6.4 8.0 0.00 0.00 0.00 84 1011.3
20260508065804 20 4 6.4 8.0 0.00 0.00 0.00 84 1011.3
20260508065704 20 7 6.4 8.0 0.00 0.00 0.00 84 1011.2
20260508065603 20 7 6.4 9.7 0.00 0.00 0.00 84 1011.3
20260508065505 20 7 6.4 9.7 0.00 0.00 0.00 84 1011.2
20260508065404 20 7 6.4 9.7 0.00 0.00 0.00 84 1011.3
20260508065306 20 7 6.4 9.7 0.00 0.00 0.00 84 1011.3
20260508065202 20 6 6.4 9.7 0.00 0.00 0.00 84 1011.4
20260508065103 20 8 6.4 9.7 0.00 0.00 0.00 83 1011.4
20260508065002 20 8 6.4 9.7 0.00 0.00 0.00 84 1011.4
20260508064904 20 7 6.4 9.7 0.00 0.00 0.00 84 1011.4
20260508064801 20 6 8.0 9.7 0.00 0.00 0.00 84 1011.5
20260508064702 20 7 8.0 9.7 0.00 0.00 0.00 84 1011.5
20260508064603 20 7 6.4 9.7 0.00 0.00 0.00 84 1011.5
20260508064503 20 10 4.8 8.0 0.00 0.00 0.00 84 1011.5
20260508064402 20 11 4.8 8.0 0.00 0.00 0.00 84 1011.5
20260508064303 20 11 4.8 8.0 0.00 0.00 0.00 84 1011.6
20260508064202 20 11 4.8 8.0 0.00 0.00 0.00 84 1011.5
20260508064102 20 4 3.2 8.0 0.00 0.00 0.00 84 1011.5
20260508064003 20 4 4.8 8.0 0.00 0.00 0.00 84 1011.4
20260508063904 20 7 4.8 8.0 0.00 0.00 0.00 83 1011.5
20260508063804 20 6 4.8 8.0 0.00 0.00 0.00 83 1011.5
20260508063703 20 4 4.8 8.0 0.00 0.00 0.00 83 1011.5
20260508063603 20 4 4.8 8.0 0.00 0.00 0.00 83 1011.6
20260508063503 20 4 4.8 8.0 0.00 0.00 0.00 83 1011.5
20260508063403 20 10 4.8 9.7 0.00 0.00 0.00 83 1011.6
20260508063303 20 10 4.8 11.3 0.00 0.00 0.00 83 1011.6
20260508063201 20 6 4.8 11.3 0.00 0.00 0.00 83 1011.6
20260508063102 20 8 3.2 11.3 0.00 0.00 0.00 83 1011.5
20260508063002 20 8 3.2 11.3 0.00 0.00 0.00 83 1011.5
20260508062904 20 11 3.2 11.3 0.00 0.00 0.00 83 1011.4
20260508062803 20 11 6.4 11.3 0.00 0.00 0.00 83 1011.4
20260508062701 20 13 6.4 11.3 0.00 0.00 0.00 83 1011.4
20260508062602 20 11 6.4 11.3 0.00 0.00 0.00 83 1011.4
20260508062504 20 13 8.0 11.3 0.00 0.00 0.00 83 1011.3
20260508062402 20 13 6.4 11.3 0.00 0.00 0.00 84 1011.3
20260508062306 20 17 6.4 9.7 0.00 0.00 0.00 83 1011.3
20260508062203 20 17 6.4 9.7 0.00 0.00 0.00 83 1011.3
20260508062102 20 14 6.4 8.0 0.00 0.00 0.00 84 1011.3
20260508062005 20 16 6.4 8.0 0.00 0.00 0.00 84 1011.4
20260508061903 20 16 6.4 8.0 0.00 0.00 0.00 84 1011.4
20260508061803 20 14 4.8 8.0 0.00 0.00 0.00 84 1011.5
20260508061701 20 13 4.8 8.0 0.00 0.00 0.00 84 1011.5
20260508061600 20 11 4.8 8.0 0.00 0.00 0.00 84 1011.6
20260508061459 20 13 3.2 8.0 0.00 0.00 0.00 84 1011.6
20260508061358 20 4 3.2 8.0 0.00 0.00 0.00 84 1011.7
20260508061245 20 4 4.8 8.0 0.00 0.00 0.00 84 1011.8
20260508061142 20 4 3.2 8.0 0.00 0.00 0.00 84 1011.8
20260508061042 20 1 1.6 6.4 0.00 0.00 0.00 84 1011.9
20260508060940 20 1 1.6 6.4 0.00 0.00 0.00 83 1012.0
20260508060835 20 1 0.0 6.4 0.00 0.00 0.00 83 1012.0
20260508060735 20 1 1.6 6.4 0.00 0.00 0.00 83 1012.1
20260508060632 20 1 1.6 6.4 0.00 0.00 0.00 83 1011.9
20260508060532 20 4 1.6 6.4 0.00 0.00 0.00 83 1011.9
20260508060432 20 4 1.6 6.4 0.00 0.00 0.00 83 1011.8
20260508060331 20 3 3.2 6.4 0.00 0.00 0.00 83 1011.7
20260508060231 20 4 3.2 8.0 0.00 0.00 0.00 83 1011.7
20260508060131 20 6 3.2 8.0 0.00 0.00 0.00 83 1011.7
20260508060032 20 1 3.2 8.0 0.00 0.00 0.00 83 1011.6
20260508055931 20 1 3.2 8.0 0.00 0.00 0.00 83 1011.7
20260508055831 20 4 3.2 8.0 0.00 0.00 0.00 83 1011.6
20260508055733 20 34 3.2 8.0 0.00 0.00 0.00 83 1011.7
20260508055631 20 34 4.8 8.0 0.00 0.00 0.00 83 1011.5
20260508055531 20 35 3.2 8.0 0.00 0.00 0.00 83 1011.5
20260508055432 20 35 4.8 8.0 0.00 0.00 0.00 82 1011.4
20260508055331 20 58 4.8 8.0 0.00 0.00 0.00 82 1011.3
20260508055231 20 58 3.2 8.0 0.00 0.00 0.00 82 1011.3
20260508055131 20 62 4.8 9.7 0.00 0.00 0.00 82 1011.2
20260508055032 20 61 4.8 9.7 0.00 0.00 0.00 82 1011.3
20260508054932 20 51 3.2 9.7 0.00 0.00 0.00 82 1011.3
20260508054831 20 48 3.2 9.7 0.00 0.00 0.00 82 1011.3